Time,TemperatureF,DewpointF,PressureIn,WindDirection,WindDirectionDegrees,WindSpeedMPH,WindSpeedGustMPH,Humidity,HourlyPrecipIn,Conditions,Clouds,dailyrainin,SoftwareType,DateUTC
2013-03-18 00:00:00,53.1,45.4,29.80,West,270,1.1,2.5,75,0.00,,,0.00,WUHU216HW,2013-03-18 04:00:00,
2013-03-18 00:05:00,52.7,45.0,29.80,NNE,23,0.0,1.1,75,0.00,,,0.00,WUHU216HW,2013-03-18 04:05:00,
2013-03-18 00:06:00,52.7,45.0,29.80,SW,225,1.1,1.1,75,0.00,,,0.00,WUHU216HW,2013-03-18 04:06:00,
2013-03-18 00:07:00,52.7,45.0,29.80,SW,219,0.8,1.1,75,0.00,,,0.00,WUHU216HW,2013-03-18 04:07:00,
2013-03-18 00:10:00,52.7,45.4,29.80,SSE,158,3.6,3.6,76,0.00,,,0.00,WUHU216HW,2013-03-18 04:10:00,
2013-03-18 00:11:00,52.7,45.7,29.80,SE,135,4.5,4.5,77,0.00,,,0.00,WUHU216HW,2013-03-18 04:11:00,
2013-03-18 00:13:00,52.9,46.3,29.79,SSW,203,3.8,4.5,78,0.00,,,0.00,WUHU216HW,2013-03-18 04:13:00,
2013-03-18 00:15:00,53.3,47.0,29.79,South,185,3.3,4.5,79,0.00,,,0.00,WUHU216HW,2013-03-18 04:15:00,
2013-03-18 00:16:00,53.6,47.3,29.79,South,180,5.1,5.1,79,0.00,,,0.00,WUHU216HW,2013-03-18 04:16:00,
2013-03-18 00:19:00,54.0,47.7,29.79,SSE,158,3.1,5.1,79,0.00,,,0.00,WUHU216HW,2013-03-18 04:19:00,
2013-03-18 00:21:00,54.5,48.2,29.79,SSE,158,3.1,5.1,79,0.00,,,0.00,WUHU216HW,2013-03-18 04:21:00,
2013-03-18 00:22:00,54.5,47.8,29.79,SSW,203,3.8,5.1,78,0.00,,,0.00,WUHU216HW,2013-03-18 04:22:00,
2013-03-18 00:24:00,54.9,48.2,29.79,SE,135,4.7,5.1,78,0.00,,,0.00,WUHU216HW,2013-03-18 04:24:00,
2013-03-18 00:27:00,55.1,48.3,29.79,SE,135,3.6,4.7,78,0.00,,,0.00,WUHU216HW,2013-03-18 04:27:00,
2013-03-18 00:30:00,55.3,48.5,29.79,South,180,4.3,4.7,78,0.00,,,0.00,WUHU216HW,2013-03-18 04:30:00,
2013-03-18 00:31:00,55.3,48.5,29.79,South,185,2.5,4.7,78,0.00,,,0.00,WUHU216HW,2013-03-18 04:31:00,
2013-03-18 00:32:00,55.3,48.5,29.79,SE,135,1.3,4.7,78,0.00,,,0.00,WUHU216HW,2013-03-18 04:32:00,
2013-03-18 00:35:00,55.3,48.5,29.79,South,180,1.9,4.7,78,0.00,,,0.00,WUHU216HW,2013-03-18 04:35:00,
2013-03-18 00:37:00,55.3,48.5,29.79,SSE,158,2.7,4.7,78,0.00,,,0.00,WUHU216HW,2013-03-18 04:37:00,
2013-03-18 00:38:00,55.4,48.6,29.79,WSW,248,1.1,4.7,78,0.00,,,0.00,WUHU216HW,2013-03-18 04:38:00,
2013-03-18 00:42:00,55.3,48.2,29.79,SW,234,2.9,4.9,77,0.00,,,0.00,WUHU216HW,2013-03-18 04:42:00,
2013-03-18 00:43:00,55.3,48.5,29.79,SW,225,0.9,4.9,78,0.00,,,0.00,WUHU216HW,2013-03-18 04:43:00,
2013-03-18 00:44:00,55.1,48.3,29.79,SW,225,4.5,4.9,78,0.00,,,0.00,WUHU216HW,2013-03-18 04:44:00,
2013-03-18 00:47:00,55.1,48.3,29.79,South,184,1.5,4.9,78,0.00,,,0.00,WUHU216HW,2013-03-18 04:47:00,
2013-03-18 00:48:00,55.1,48.3,29.79,South,184,1.5,4.9,78,0.00,,,0.00,WUHU216HW,2013-03-18 04:48:00,
2013-03-18 00:49:00,55.1,48.3,29.79,SSE,158,1.1,4.9,78,0.00,,,0.00,WUHU216HW,2013-03-18 04:49:00,
2013-03-18 00:50:00,55.1,48.3,29.79,SSE,158,1.1,4.9,78,0.00,,,0.00,WUHU216HW,2013-03-18 04:50:00,
2013-03-18 00:53:00,54.9,48.2,29.79,SSW,203,2.0,4.5,78,0.00,,,0.00,WUHU216HW,2013-03-18 04:53:00,
2013-03-18 00:54:00,54.9,48.2,29.79,South,181,1.7,2.2,78,0.00,,,0.00,WUHU216HW,2013-03-18 04:54:00,
2013-03-18 00:57:00,54.9,48.2,29.79,SE,144,1.4,2.2,78,0.00,,,0.00,WUHU216HW,2013-03-18 04:57:00,
2013-03-18 00:59:00,54.9,48.2,29.79,SSE,158,1.8,2.2,78,0.00,,,0.00,WUHU216HW,2013-03-18 04:59:00,
2013-03-18 01:00:00,54.9,48.2,29.79,SW,225,0.7,2.2,78,0.00,,,0.00,WUHU216HW,2013-03-18 05:00:00,
2013-03-18 01:02:00,54.9,48.5,29.79,SSW,203,1.6,1.8,79,0.00,,,0.00,WUHU216HW,2013-03-18 05:02:00,
2013-03-18 01:04:00,54.7,48.0,29.79,SSE,158,3.6,3.6,78,0.00,,,0.00,WUHU216HW,2013-03-18 05:04:00,
2013-03-18 01:05:00,54.7,48.0,29.79,SSE,163,2.3,3.6,78,0.00,,,0.00,WUHU216HW,2013-03-18 05:05:00,
2013-03-18 01:07:00,54.7,48.3,29.79,South,180,3.2,3.6,79,0.00,,,0.00,WUHU216HW,2013-03-18 05:07:00,
2013-03-18 01:09:00,54.7,48.3,29.79,SE,135,3.1,3.6,79,0.00,,,0.00,WUHU216HW,2013-03-18 05:09:00,
2013-03-18 01:10:00,54.7,48.3,29.79,SSE,153,2.2,3.6,79,0.00,,,0.00,WUHU216HW,2013-03-18 05:10:00,
2013-03-18 01:14:00,54.7,48.0,29.79,SSE,158,2.5,3.4,78,0.00,,,0.00,WUHU216HW,2013-03-18 05:14:00,
2013-03-18 01:15:00,54.9,48.2,29.79,SSE,167,2.2,3.4,78,0.00,,,0.00,WUHU216HW,2013-03-18 05:15:00,
2013-03-18 01:16:00,54.9,48.2,29.79,SSE,158,4.5,4.5,78,0.00,,,0.00,WUHU216HW,2013-03-18 05:16:00,
2013-03-18 01:20:00,54.9,48.5,29.79,SE,135,4.0,4.5,79,0.00,,,0.00,WUHU216HW,2013-03-18 05:20:00,
2013-03-18 01:21:00,55.1,48.7,29.79,SE,135,3.7,4.5,79,0.00,,,0.00,WUHU216HW,2013-03-18 05:21:00,
2013-03-18 01:22:00,55.1,48.7,29.79,SE,135,3.0,4.5,79,0.00,,,0.00,WUHU216HW,2013-03-18 05:22:00,
2013-03-18 01:25:00,55.3,48.8,29.79,South,180,2.0,4.7,79,0.00,,,0.00,WUHU216HW,2013-03-18 05:25:00,
2013-03-18 01:26:00,55.4,49.0,29.79,SSE,159,1.9,4.7,79,0.00,,,0.00,WUHU216HW,2013-03-18 05:26:00,
2013-03-18 01:29:00,55.6,49.5,29.79,ESE,113,4.9,4.9,80,0.00,,,0.00,WUHU216HW,2013-03-18 05:29:00,
2013-03-18 01:31:00,55.8,49.7,29.79,East,90,1.8,4.9,80,0.00,,,0.00,WUHU216HW,2013-03-18 05:31:00,
2013-03-18 01:35:00,55.8,49.7,29.79,SSE,168,3.0,4.9,80,0.00,,,0.00,WUHU216HW,2013-03-18 05:35:00,
2013-03-18 01:36:00,55.8,49.7,29.79,South,180,3.6,4.9,80,0.00,,,0.00,WUHU216HW,2013-03-18 05:36:00,
2013-03-18 01:37:00,56.0,49.9,29.79,South,174,2.4,4.9,80,0.00,,,0.00,WUHU216HW,2013-03-18 05:37:00,
2013-03-18 01:39:00,56.0,49.9,29.79,SSE,158,3.4,3.6,80,0.00,,,0.00,WUHU216HW,2013-03-18 05:39:00,
2013-03-18 01:42:00,56.0,49.9,29.79,SSW,203,3.8,3.8,80,0.00,,,0.00,WUHU216HW,2013-03-18 05:42:00,
2013-03-18 01:43:00,56.2,50.0,29.79,SSW,195,2.8,3.8,80,0.00,,,0.00,WUHU216HW,2013-03-18 05:43:00,
2013-03-18 01:45:00,56.2,50.0,29.79,SW,225,3.8,3.8,80,0.00,,,0.00,WUHU216HW,2013-03-18 05:45:00,
2013-03-18 01:47:00,56.2,50.0,29.78,SSE,156,1.9,3.8,80,0.00,,,0.00,WUHU216HW,2013-03-18 05:47:00,
2013-03-18 01:48:00,56.3,50.2,29.78,SE,135,2.2,3.8,80,0.00,,,0.00,WUHU216HW,2013-03-18 05:48:00,
2013-03-18 01:50:00,56.3,50.2,29.78,SSE,158,2.5,3.8,80,0.00,,,0.00,WUHU216HW,2013-03-18 05:50:00,
2013-03-18 01:53:00,56.5,50.4,29.78,South,180,6.1,7.6,80,0.00,,,0.00,WUHU216HW,2013-03-18 05:53:00,
2013-03-18 01:55:00,56.9,51.1,29.77,SSE,168,4.3,7.6,81,0.00,,,0.00,WUHU216HW,2013-03-18 05:55:00,
2013-03-18 01:58:00,56.9,50.8,29.78,SE,135,6.5,7.6,80,0.00,,,0.00,WUHU216HW,2013-03-18 05:58:00,
2013-03-18 02:01:00,57.1,50.9,29.78,SSE,158,9.2,9.2,80,0.00,,,0.00,WUHU216HW,2013-03-18 06:01:00,
2013-03-18 02:03:00,57.2,51.5,29.78,South,180,4.0,9.2,81,0.00,,,0.00,WUHU216HW,2013-03-18 06:03:00,
2013-03-18 02:04:00,57.2,51.1,29.78,SSE,152,4.3,9.2,80,0.00,,,0.00,WUHU216HW,2013-03-18 06:04:00,
2013-03-18 02:06:00,57.2,51.1,29.78,South,180,2.7,9.2,80,0.00,,,0.00,WUHU216HW,2013-03-18 06:06:00,
2013-03-18 02:08:00,57.4,51.3,29.78,SW,225,4.2,9.2,80,0.00,,,0.00,WUHU216HW,2013-03-18 06:08:00,
2013-03-18 02:09:00,57.4,51.3,29.78,SSE,166,3.7,9.2,80,0.00,,,0.00,WUHU216HW,2013-03-18 06:09:00,
2013-03-18 02:10:00,57.4,51.3,29.78,SSE,166,3.7,9.2,80,0.00,,,0.00,WUHU216HW,2013-03-18 06:10:00,
2013-03-18 02:11:00,57.4,51.3,29.78,SSW,203,3.6,6.3,80,0.00,,,0.00,WUHU216HW,2013-03-18 06:11:00,
2013-03-18 02:13:00,57.4,51.3,29.78,SE,144,2.2,4.9,80,0.00,,,0.00,WUHU216HW,2013-03-18 06:13:00,
2013-03-18 02:15:00,57.6,51.5,29.78,SSE,158,3.6,4.9,80,0.00,,,0.00,WUHU216HW,2013-03-18 06:15:00,
2013-03-18 02:16:00,57.6,51.5,29.78,South,170,3.5,4.0,80,0.00,,,0.00,WUHU216HW,2013-03-18 06:16:00,
2013-03-18 02:18:00,57.6,51.5,29.78,South,180,4.7,4.7,80,0.00,,,0.00,WUHU216HW,2013-03-18 06:18:00,
2013-03-18 02:20:00,57.6,51.5,29.78,South,180,3.3,4.7,80,0.00,,,0.00,WUHU216HW,2013-03-18 06:20:00,
2013-03-18 02:22:00,57.6,51.5,29.78,SSE,158,3.6,4.7,80,0.00,,,0.00,WUHU216HW,2013-03-18 06:22:00,
2013-03-18 02:24:00,57.4,51.3,29.78,SE,135,5.4,5.4,80,0.00,,,0.00,WUHU216HW,2013-03-18 06:24:00,
2013-03-18 02:26:00,57.4,51.3,29.78,SE,135,3.4,5.4,80,0.00,,,0.00,WUHU216HW,2013-03-18 06:26:00,
2013-03-18 02:27:00,57.6,51.5,29.77,SSE,158,4.3,5.4,80,0.00,,,0.00,WUHU216HW,2013-03-18 06:27:00,
2013-03-18 02:30:00,57.6,51.5,29.78,SSW,203,10.1,10.1,80,0.00,,,0.00,WUHU216HW,2013-03-18 06:30:00,
2013-03-18 02:32:00,57.6,51.5,29.78,SSE,163,4.7,10.1,80,0.00,,,0.00,WUHU216HW,2013-03-18 06:32:00,
2013-03-18 02:33:00,57.6,51.5,29.77,South,178,3.3,10.1,80,0.00,,,0.00,WUHU216HW,2013-03-18 06:33:00,
2013-03-18 02:35:00,57.6,51.5,29.77,SSE,163,2.3,10.1,80,0.00,,,0.00,WUHU216HW,2013-03-18 06:35:00,
2013-03-18 02:37:00,57.6,51.5,29.77,SSW,203,5.4,10.1,80,0.00,,,0.00,WUHU216HW,2013-03-18 06:37:00,
2013-03-18 02:38:00,57.6,51.5,29.77,South,173,4.9,10.1,80,0.00,,,0.00,WUHU216HW,2013-03-18 06:38:00,
2013-03-18 02:41:00,57.8,51.7,29.77,SSE,158,2.7,5.4,80,0.00,,,0.00,WUHU216HW,2013-03-18 06:41:00,
2013-03-18 02:43:00,57.8,51.7,29.77,SSW,203,2.5,5.4,80,0.00,,,0.00,WUHU216HW,2013-03-18 06:43:00,
2013-03-18 02:44:00,57.8,51.7,29.77,SSW,203,4.7,5.4,80,0.00,,,0.00,WUHU216HW,2013-03-18 06:44:00,
2013-03-18 02:47:00,58.0,51.8,29.78,SSE,158,2.5,4.7,80,0.00,,,0.00,WUHU216HW,2013-03-18 06:47:00,
2013-03-18 02:48:00,58.0,51.8,29.78,SE,135,3.4,4.7,80,0.00,,,0.00,WUHU216HW,2013-03-18 06:48:00,
2013-03-18 02:50:00,58.0,51.8,29.78,SW,225,4.0,4.7,80,0.00,,,0.00,WUHU216HW,2013-03-18 06:50:00,
2013-03-18 02:52:00,58.0,51.8,29.78,SW,225,2.2,4.7,80,0.00,,,0.00,WUHU216HW,2013-03-18 06:52:00,
2013-03-18 02:53:00,58.0,51.8,29.78,SSE,158,2.9,4.7,80,0.00,,,0.00,WUHU216HW,2013-03-18 06:53:00,
2013-03-18 02:55:00,58.0,51.8,29.78,South,173,2.6,4.0,80,0.00,,,0.00,WUHU216HW,2013-03-18 06:55:00,
2013-03-18 02:58:00,58.0,51.8,29.78,South,172,3.7,4.7,80,0.00,,,0.00,WUHU216HW,2013-03-18 06:58:00,
2013-03-18 03:00:00,58.0,51.8,29.78,SE,135,5.1,5.1,80,0.00,,,0.00,WUHU216HW,2013-03-18 07:00:00,
2013-03-18 03:03:00,58.0,51.8,29.78,SE,125,2.8,5.1,80,0.00,,,0.00,WUHU216HW,2013-03-18 07:03:00,
2013-03-18 03:04:00,58.0,52.2,29.78,WSW,248,4.0,5.1,81,0.00,,,0.00,WUHU216HW,2013-03-18 07:04:00,
2013-03-18 03:06:00,58.0,52.2,29.78,SE,135,2.9,5.1,81,0.00,,,0.00,WUHU216HW,2013-03-18 07:06:00,
2013-03-18 03:08:00,58.0,52.2,29.78,ESE,113,3.4,5.1,81,0.00,,,0.00,WUHU216HW,2013-03-18 07:08:00,
2013-03-18 03:09:00,58.1,52.0,29.78,SSW,203,2.2,4.0,80,0.00,,,0.00,WUHU216HW,2013-03-18 07:09:00,
2013-03-18 03:12:00,58.1,52.0,29.78,South,178,2.7,4.0,80,0.00,,,0.00,WUHU216HW,2013-03-18 07:12:00,
2013-03-18 03:13:00,58.1,52.0,29.79,ESE,104,1.0,4.0,80,0.00,,,0.00,WUHU216HW,2013-03-18 07:13:00,
2013-03-18 03:15:00,58.0,51.8,29.79,SSW,211,1.2,3.8,80,0.00,,,0.00,WUHU216HW,2013-03-18 07:15:00,
2013-03-18 03:18:00,58.0,51.8,29.79,South,174,4.1,4.7,80,0.00,,,0.00,WUHU216HW,2013-03-18 07:18:00,
2013-03-18 03:19:00,58.0,51.8,29.79,SE,145,2.3,4.7,80,0.00,,,0.00,WUHU216HW,2013-03-18 07:19:00,
2013-03-18 03:20:00,58.0,51.8,29.79,SSE,158,3.8,4.7,80,0.00,,,0.00,WUHU216HW,2013-03-18 07:20:00,
2013-03-18 03:23:00,58.1,52.4,29.79,SE,135,2.2,4.7,81,0.00,,,0.00,WUHU216HW,2013-03-18 07:23:00,
2013-03-18 03:24:00,58.1,52.4,29.79,SE,135,6.3,6.3,81,0.00,,,0.00,WUHU216HW,2013-03-18 07:24:00,
2013-03-18 03:26:00,58.1,52.4,29.79,SSE,158,4.9,6.3,81,0.00,,,0.00,WUHU216HW,2013-03-18 07:26:00,
2013-03-18 03:28:00,58.3,52.8,29.79,SSW,203,6.9,6.9,82,0.00,,,0.00,WUHU216HW,2013-03-18 07:28:00,
2013-03-18 03:30:00,58.5,52.8,29.79,SE,136,2.6,6.9,81,0.00,,,0.00,WUHU216HW,2013-03-18 07:30:00,
2013-03-18 03:31:00,58.5,52.8,29.79,SSW,203,2.5,6.9,81,0.00,,,0.00,WUHU216HW,2013-03-18 07:31:00,
2013-03-18 03:33:00,58.5,52.8,29.79,SSE,158,4.3,6.9,81,0.00,,,0.00,WUHU216HW,2013-03-18 07:33:00,
2013-03-18 03:35:00,58.5,52.8,29.79,ESE,120,3.0,6.9,81,0.00,,,0.00,WUHU216HW,2013-03-18 07:35:00,
2013-03-18 03:36:00,58.5,52.8,29.79,East,90,3.4,6.9,81,0.00,,,0.00,WUHU216HW,2013-03-18 07:36:00,
2013-03-18 03:39:00,58.7,52.9,29.79,South,180,2.2,4.3,81,0.00,,,0.00,WUHU216HW,2013-03-18 07:39:00,
2013-03-18 03:40:00,58.7,52.9,29.79,SSE,158,4.0,4.3,81,0.00,,,0.00,WUHU216HW,2013-03-18 07:40:00,
2013-03-18 03:42:00,58.7,52.9,29.79,SSE,158,6.3,6.3,81,0.00,,,0.00,WUHU216HW,2013-03-18 07:42:00,
2013-03-18 03:44:00,58.7,52.9,29.79,SE,135,4.3,6.3,81,0.00,,,0.00,WUHU216HW,2013-03-18 07:44:00,
2013-03-18 03:46:00,58.7,52.9,29.79,South,172,2.9,6.3,81,0.00,,,0.00,WUHU216HW,2013-03-18 07:46:00,
2013-03-18 03:47:00,58.7,52.9,29.79,SSW,203,2.2,6.3,81,0.00,,,0.00,WUHU216HW,2013-03-18 07:47:00,
2013-03-18 03:48:00,58.7,52.9,29.79,South,181,1.7,6.3,81,0.00,,,0.00,WUHU216HW,2013-03-18 07:48:00,
2013-03-18 03:49:00,58.7,52.9,29.78,SE,135,4.1,6.3,81,0.00,,,0.00,WUHU216HW,2013-03-18 07:49:00,
2013-03-18 03:52:00,58.7,52.9,29.79,SE,144,4.6,5.4,81,0.00,,,0.00,WUHU216HW,2013-03-18 07:52:00,
2013-03-18 03:53:00,58.7,52.9,29.79,SSE,158,3.2,5.4,81,0.00,,,0.00,WUHU216HW,2013-03-18 07:53:00,
2013-03-18 03:55:00,58.7,52.9,29.78,SSE,158,3.8,5.4,81,0.00,,,0.00,WUHU216HW,2013-03-18 07:55:00,
2013-03-18 03:58:00,58.7,52.9,29.78,SSE,158,5.1,5.4,81,0.00,,,0.00,WUHU216HW,2013-03-18 07:58:00,
2013-03-18 04:00:00,58.7,52.9,29.78,SSE,154,3.2,5.4,81,0.00,,,0.00,WUHU216HW,2013-03-18 08:00:00,
2013-03-18 04:04:00,58.7,52.9,29.78,ESE,113,6.9,6.9,81,0.00,,,0.00,WUHU216HW,2013-03-18 08:04:00,
2013-03-18 04:05:00,58.7,52.9,29.78,SE,135,5.1,6.9,81,0.00,,,0.00,WUHU216HW,2013-03-18 08:05:00,
2013-03-18 04:09:00,58.7,52.9,29.77,SE,135,3.1,7.6,81,0.00,,,0.00,WUHU216HW,2013-03-18 08:09:00,
2013-03-18 04:10:00,58.7,52.9,29.77,SE,135,4.0,7.6,81,0.00,,,0.00,WUHU216HW,2013-03-18 08:10:00,
2013-03-18 04:11:00,58.7,52.9,29.77,SSW,203,5.6,7.6,81,0.00,,,0.00,WUHU216HW,2013-03-18 08:11:00,
2013-03-18 04:14:00,58.7,52.9,29.77,SSE,158,5.1,7.6,81,0.00,,,0.00,WUHU216HW,2013-03-18 08:14:00,
2013-03-18 04:16:00,58.7,52.9,29.77,SE,138,4.6,7.6,81,0.00,,,0.00,WUHU216HW,2013-03-18 08:16:00,
2013-03-18 04:18:00,58.9,53.1,29.77,SE,135,4.5,5.6,81,0.00,,,0.00,WUHU216HW,2013-03-18 08:18:00,
2013-03-18 04:21:00,58.7,52.9,29.77,SSE,158,4.9,5.4,81,0.00,,,0.00,WUHU216HW,2013-03-18 08:21:00,
2013-03-18 04:22:00,58.9,53.1,29.77,SE,146,4.8,5.4,81,0.00,,,0.00,WUHU216HW,2013-03-18 08:22:00,
2013-03-18 04:23:00,58.9,53.1,29.77,SE,127,3.6,5.4,81,0.00,,,0.00,WUHU216HW,2013-03-18 08:23:00,
2013-03-18 04:27:00,58.9,53.4,29.77,SSE,158,3.8,5.8,82,0.00,,,0.00,WUHU216HW,2013-03-18 08:27:00,
2013-03-18 04:28:00,58.7,53.2,29.77,SSE,158,2.7,5.8,82,0.00,,,0.00,WUHU216HW,2013-03-18 08:28:00,
2013-03-18 04:32:00,58.7,53.2,29.78,SSW,201,4.5,5.8,82,0.00,,,0.00,WUHU216HW,2013-03-18 08:32:00,
2013-03-18 04:33:00,58.7,53.2,29.78,SSE,147,3.3,5.8,82,0.00,,,0.00,WUHU216HW,2013-03-18 08:33:00,
2013-03-18 04:34:00,58.7,53.2,29.77,SSE,158,4.7,5.8,82,0.00,,,0.00,WUHU216HW,2013-03-18 08:34:00,
2013-03-18 04:38:00,58.7,53.2,29.78,SE,135,6.3,6.3,82,0.00,,,0.00,WUHU216HW,2013-03-18 08:38:00,
2013-03-18 04:39:00,58.7,53.2,29.77,SE,142,4.6,6.3,82,0.00,,,0.00,WUHU216HW,2013-03-18 08:39:00,
2013-03-18 04:40:00,58.7,53.2,29.77,SSW,203,4.4,6.3,82,0.00,,,0.00,WUHU216HW,2013-03-18 08:40:00,
2013-03-18 04:43:00,58.7,53.2,29.77,East,90,4.0,6.3,82,0.00,,,0.00,WUHU216HW,2013-03-18 08:43:00,
2013-03-18 04:44:00,58.7,53.2,29.77,SE,139,3.7,6.3,82,0.00,,,0.00,WUHU216HW,2013-03-18 08:44:00,
2013-03-18 04:46:00,58.9,53.4,29.77,SSE,158,5.4,6.3,82,0.00,,,0.00,WUHU216HW,2013-03-18 08:46:00,
2013-03-18 04:48:00,58.9,53.4,29.77,SW,221,4.8,8.5,82,0.00,,,0.00,WUHU216HW,2013-03-18 08:48:00,
2013-03-18 04:49:00,58.9,53.4,29.77,SW,221,4.8,8.5,82,0.00,,,0.00,WUHU216HW,2013-03-18 08:49:00,
2013-03-18 04:50:00,58.9,53.4,29.77,SE,135,4.0,8.5,82,0.00,,,0.00,WUHU216HW,2013-03-18 08:50:00,
2013-03-18 04:52:00,58.9,53.4,29.77,SSE,165,5.1,8.5,82,0.00,,,0.00,WUHU216HW,2013-03-18 08:52:00,
2013-03-18 04:54:00,58.9,53.4,29.77,SE,135,1.8,8.5,82,0.00,,,0.00,WUHU216HW,2013-03-18 08:54:00,
2013-03-18 04:55:00,58.9,53.4,29.77,SE,135,3.4,8.5,82,0.00,,,0.00,WUHU216HW,2013-03-18 08:55:00,
2013-03-18 04:57:00,58.9,53.7,29.77,SSE,158,6.1,6.7,83,0.00,,,0.00,WUHU216HW,2013-03-18 08:57:00,
2013-03-18 04:59:00,58.9,53.7,29.77,SE,135,5.8,6.7,83,0.00,,,0.00,WUHU216HW,2013-03-18 08:59:00,
2013-03-18 05:00:00,58.9,53.4,29.77,SSE,154,4.9,6.7,82,0.00,,,0.00,WUHU216HW,2013-03-18 09:00:00,
2013-03-18 05:02:00,58.9,53.4,29.77,SSE,158,4.7,6.7,82,0.00,,,0.00,WUHU216HW,2013-03-18 09:02:00,
2013-03-18 05:03:00,58.9,53.4,29.77,SE,137,6.4,6.9,82,0.00,,,0.00,WUHU216HW,2013-03-18 09:03:00,
2013-03-18 05:05:00,58.9,53.7,29.77,SE,135,7.6,7.6,83,0.00,,,0.00,WUHU216HW,2013-03-18 09:05:00,
2013-03-18 05:07:00,58.9,53.7,29.77,SSE,167,3.5,7.6,83,0.00,,,0.00,WUHU216HW,2013-03-18 09:07:00,
2013-03-18 05:08:00,58.9,53.7,29.77,SSE,167,3.5,7.6,83,0.00,,,0.00,WUHU216HW,2013-03-18 09:08:00,
2013-03-18 05:09:00,58.9,53.7,29.77,South,180,2.0,7.6,83,0.00,,,0.00,WUHU216HW,2013-03-18 09:09:00,
2013-03-18 05:10:00,58.9,53.4,29.77,SSE,158,5.4,7.6,82,0.00,,,0.00,WUHU216HW,2013-03-18 09:10:00,
2013-03-18 05:12:00,58.9,53.4,29.77,ESE,114,3.3,7.6,82,0.00,,,0.00,WUHU216HW,2013-03-18 09:12:00,
2013-03-18 05:13:00,58.9,53.4,29.77,South,180,4.3,7.6,82,0.00,,,0.00,WUHU216HW,2013-03-18 09:13:00,
2013-03-18 05:15:00,58.9,53.7,29.77,South,169,4.2,7.6,83,0.00,,,0.00,WUHU216HW,2013-03-18 09:15:00,
2013-03-18 05:18:00,58.9,53.7,29.77,SE,135,5.4,5.4,83,0.00,,,0.00,WUHU216HW,2013-03-18 09:18:00,
2013-03-18 05:20:00,58.9,53.7,29.77,SSE,158,5.4,5.4,83,0.00,,,0.00,WUHU216HW,2013-03-18 09:20:00,
2013-03-18 05:21:00,58.9,53.7,29.77,SSE,158,5.4,5.4,83,0.00,,,0.00,WUHU216HW,2013-03-18 09:21:00,
2013-03-18 05:24:00,58.9,53.7,29.77,SSW,193,5.2,6.3,83,0.00,,,0.00,WUHU216HW,2013-03-18 09:24:00,
2013-03-18 05:25:00,58.9,53.7,29.77,SE,135,3.8,6.3,83,0.00,,,0.00,WUHU216HW,2013-03-18 09:25:00,
2013-03-18 05:26:00,58.9,53.7,29.77,ESE,122,2.3,6.3,83,0.00,,,0.00,WUHU216HW,2013-03-18 09:26:00,
2013-03-18 05:27:00,58.9,53.7,29.77,ESE,122,2.3,6.3,83,0.00,,,0.00,WUHU216HW,2013-03-18 09:27:00,
2013-03-18 05:29:00,58.9,53.7,29.77,SSE,158,6.9,6.9,83,0.00,,,0.00,WUHU216HW,2013-03-18 09:29:00,
2013-03-18 05:30:00,58.9,53.7,29.77,SSE,158,9.6,9.6,83,0.00,,,0.00,WUHU216HW,2013-03-18 09:30:00,
2013-03-18 05:32:00,58.9,53.7,29.77,SSE,158,6.5,9.6,83,0.00,,,0.00,WUHU216HW,2013-03-18 09:32:00,
2013-03-18 05:34:00,58.7,53.6,29.77,SSE,148,7.6,9.6,83,0.00,,,0.00,WUHU216HW,2013-03-18 09:34:00,
2013-03-18 05:36:00,58.9,53.7,29.77,SE,146,5.9,9.6,83,0.00,,,0.00,WUHU216HW,2013-03-18 09:36:00,
2013-03-18 05:37:00,58.9,53.7,29.77,ESE,112,4.4,9.6,83,0.00,,,0.00,WUHU216HW,2013-03-18 09:37:00,
2013-03-18 05:38:00,58.9,53.7,29.77,ESE,112,4.4,9.6,83,0.00,,,0.00,WUHU216HW,2013-03-18 09:38:00,
2013-03-18 05:41:00,58.7,53.6,29.77,South,180,7.4,8.9,83,0.00,,,0.00,WUHU216HW,2013-03-18 09:41:00,
2013-03-18 05:42:00,58.7,53.6,29.77,South,180,6.1,8.9,83,0.00,,,0.00,WUHU216HW,2013-03-18 09:42:00,
2013-03-18 05:43:00,58.7,53.6,29.76,South,171,3.8,8.9,83,0.00,,,0.00,WUHU216HW,2013-03-18 09:43:00,
2013-03-18 05:44:00,58.7,53.8,29.76,SE,135,3.8,7.4,84,0.00,,,0.00,WUHU216HW,2013-03-18 09:44:00,
2013-03-18 05:46:00,58.7,53.6,29.76,SSE,159,7.4,7.8,83,0.00,,,0.00,WUHU216HW,2013-03-18 09:46:00,
2013-03-18 05:47:00,58.7,53.6,29.76,ESE,115,6.2,7.8,83,0.00,,,0.00,WUHU216HW,2013-03-18 09:47:00,
2013-03-18 05:48:00,58.7,53.6,29.76,South,180,5.4,7.8,83,0.00,,,0.00,WUHU216HW,2013-03-18 09:48:00,
2013-03-18 05:51:00,58.7,53.6,29.76,SE,135,3.6,7.8,83,0.00,,,0.00,WUHU216HW,2013-03-18 09:51:00,
2013-03-18 05:53:00,58.7,53.6,29.77,SSE,158,6.9,7.8,83,0.00,,,0.00,WUHU216HW,2013-03-18 09:53:00,
2013-03-18 05:54:00,58.7,53.6,29.77,South,180,7.4,7.8,83,0.00,,,0.00,WUHU216HW,2013-03-18 09:54:00,
2013-03-18 05:57:00,58.7,53.6,29.77,South,170,4.7,7.4,83,0.00,,,0.00,WUHU216HW,2013-03-18 09:57:00,
2013-03-18 05:59:00,58.7,53.6,29.77,SSE,158,2.8,7.4,83,0.00,,,0.00,WUHU216HW,2013-03-18 09:59:00,
2013-03-18 06:02:00,58.7,53.6,29.77,South,177,4.0,7.4,83,0.00,,,0.00,WUHU216HW,2013-03-18 10:02:00,
2013-03-18 06:04:00,58.5,53.4,29.77,SSE,158,4.0,6.7,83,0.00,,,0.00,WUHU216HW,2013-03-18 10:04:00,
2013-03-18 06:05:00,58.5,53.4,29.77,SSE,158,4.0,6.7,83,0.00,,,0.00,WUHU216HW,2013-03-18 10:05:00,
2013-03-18 06:07:00,58.5,53.6,29.77,SE,140,5.2,6.3,84,0.00,,,0.00,WUHU216HW,2013-03-18 10:07:00,
2013-03-18 06:10:00,58.7,53.8,29.77,South,186,4.9,6.3,84,0.00,,,0.00,WUHU216HW,2013-03-18 10:10:00,
2013-03-18 06:12:00,58.7,53.8,29.78,SSE,158,8.5,8.5,84,0.00,,,0.00,WUHU216HW,2013-03-18 10:12:00,
2013-03-18 06:15:00,58.7,53.8,29.78,SW,225,4.3,8.5,84,0.00,,,0.00,WUHU216HW,2013-03-18 10:15:00,
2013-03-18 06:16:00,58.7,53.8,29.78,SW,225,4.3,8.5,84,0.00,,,0.00,WUHU216HW,2013-03-18 10:16:00,
2013-03-18 06:17:00,58.7,53.6,29.78,SSW,203,4.0,8.5,83,0.00,,,0.00,WUHU216HW,2013-03-18 10:17:00,
2013-03-18 06:21:00,58.7,53.8,29.78,South,173,3.6,8.5,84,0.00,,,0.00,WUHU216HW,2013-03-18 10:21:00,
2013-03-18 06:23:00,58.7,53.8,29.78,SSE,159,4.5,5.6,84,0.00,,,0.00,WUHU216HW,2013-03-18 10:23:00,
2013-03-18 06:26:00,58.7,53.8,29.78,SE,135,7.8,7.8,84,0.00,,,0.00,WUHU216HW,2013-03-18 10:26:00,
2013-03-18 06:27:00,58.7,53.8,29.78,SE,135,7.8,7.8,84,0.00,,,0.00,WUHU216HW,2013-03-18 10:27:00,
2013-03-18 06:28:00,58.7,53.8,29.78,South,170,6.6,7.8,84,0.00,,,0.00,WUHU216HW,2013-03-18 10:28:00,
2013-03-18 06:32:00,58.7,53.8,29.78,SSE,158,6.3,7.8,84,0.00,,,0.00,WUHU216HW,2013-03-18 10:32:00,
2013-03-18 06:33:00,58.7,53.8,29.78,South,173,4.9,7.8,84,0.00,,,0.00,WUHU216HW,2013-03-18 10:33:00,
2013-03-18 06:34:00,58.7,53.8,29.78,SSE,158,5.4,7.8,84,0.00,,,0.00,WUHU216HW,2013-03-18 10:34:00,
2013-03-18 06:37:00,58.7,53.8,29.78,South,171,5.4,8.7,84,0.00,,,0.00,WUHU216HW,2013-03-18 10:37:00,
2013-03-18 06:39:00,58.7,54.2,29.78,South,180,6.3,8.7,85,0.00,,,0.00,WUHU216HW,2013-03-18 10:39:00,
2013-03-18 06:42:00,58.7,54.2,29.78,South,180,5.6,8.7,85,0.00,,,0.00,WUHU216HW,2013-03-18 10:42:00,
2013-03-18 06:44:00,58.7,54.2,29.78,SSE,158,9.2,9.2,85,0.00,,,0.00,WUHU216HW,2013-03-18 10:44:00,
2013-03-18 06:45:00,58.7,54.2,29.78,SSE,166,7.5,9.2,85,0.00,,,0.00,WUHU216HW,2013-03-18 10:45:00,
2013-03-18 06:47:00,58.7,53.8,29.79,SE,129,4.4,9.2,84,0.00,,,0.00,WUHU216HW,2013-03-18 10:47:00,
2013-03-18 06:50:00,58.7,54.2,29.79,SSE,158,4.7,9.2,85,0.00,,,0.00,WUHU216HW,2013-03-18 10:50:00,
2013-03-18 06:53:00,58.9,54.0,29.79,SSW,203,4.7,9.2,84,0.00,,,0.00,WUHU216HW,2013-03-18 10:53:00,
2013-03-18 06:55:00,58.9,54.0,29.79,SE,135,5.1,6.3,84,0.00,,,0.00,WUHU216HW,2013-03-18 10:55:00,
2013-03-18 06:59:00,58.9,54.4,29.79,South,181,4.3,6.7,85,0.00,,,0.00,WUHU216HW,2013-03-18 10:59:00,
2013-03-18 07:00:00,58.9,54.4,29.79,SE,135,5.8,6.7,85,0.00,,,0.00,WUHU216HW,2013-03-18 11:00:00,
2013-03-18 07:01:00,58.9,54.4,29.79,SE,135,6.5,6.7,85,0.00,,,0.00,WUHU216HW,2013-03-18 11:01:00,
2013-03-18 07:04:00,58.9,54.4,29.79,SE,135,7.4,7.4,85,0.00,,,0.00,WUHU216HW,2013-03-18 11:04:00,
2013-03-18 07:05:00,58.9,54.0,29.79,South,177,5.2,7.4,84,0.00,,,0.00,WUHU216HW,2013-03-18 11:05:00,
2013-03-18 07:06:00,58.9,54.0,29.79,South,177,5.2,7.4,84,0.00,,,0.00,WUHU216HW,2013-03-18 11:06:00,
2013-03-18 07:07:00,58.9,54.0,29.79,South,180,5.1,7.4,84,0.00,,,0.00,WUHU216HW,2013-03-18 11:07:00,
2013-03-18 07:09:00,58.9,54.0,29.79,SSE,158,3.8,7.4,84,0.00,,,0.00,WUHU216HW,2013-03-18 11:09:00,
2013-03-18 07:10:00,58.9,54.0,29.79,SE,135,5.6,7.4,84,0.00,,,0.00,WUHU216HW,2013-03-18 11:10:00,
2013-03-18 07:11:00,58.9,54.0,29.79,SE,135,5.6,7.4,84,0.00,,,0.00,WUHU216HW,2013-03-18 11:11:00,
2013-03-18 07:13:00,59.0,54.2,29.79,South,170,1.8,7.4,84,0.00,,,0.00,WUHU216HW,2013-03-18 11:13:00,
2013-03-18 07:16:00,59.0,54.2,29.79,SSE,158,4.0,5.6,84,0.00,,,0.00,WUHU216HW,2013-03-18 11:16:00,
2013-03-18 07:17:00,59.0,54.2,29.79,SSE,158,4.0,5.6,84,0.00,,,0.00,WUHU216HW,2013-03-18 11:17:00,
2013-03-18 07:18:00,59.0,54.2,29.79,SSE,158,5.1,5.6,84,0.00,,,0.00,WUHU216HW,2013-03-18 11:18:00,
2013-03-18 07:22:00,59.0,54.2,29.79,South,170,2.8,6.7,84,0.00,,,0.00,WUHU216HW,2013-03-18 11:22:00,
2013-03-18 07:23:00,59.0,54.2,29.79,SSW,203,2.7,6.7,84,0.00,,,0.00,WUHU216HW,2013-03-18 11:23:00,
2013-03-18 07:24:00,59.0,54.2,29.79,SE,135,4.9,6.7,84,0.00,,,0.00,WUHU216HW,2013-03-18 11:24:00,
2013-03-18 07:28:00,59.0,54.2,29.79,South,180,5.3,6.7,84,0.00,,,0.00,WUHU216HW,2013-03-18 11:28:00,
2013-03-18 07:29:00,58.9,54.0,29.78,SE,135,6.5,6.7,84,0.00,,,0.00,WUHU216HW,2013-03-18 11:29:00,
2013-03-18 07:30:00,59.0,54.2,29.79,South,175,5.9,6.5,84,0.00,,,0.00,WUHU216HW,2013-03-18 11:30:00,
2013-03-18 07:33:00,59.0,54.2,29.78,ESE,122,5.3,8.3,84,0.00,,,0.00,WUHU216HW,2013-03-18 11:33:00,
2013-03-18 07:34:00,59.0,54.5,29.78,SW,225,9.4,9.4,85,0.00,,,0.00,WUHU216HW,2013-03-18 11:34:00,
2013-03-18 07:35:00,59.0,54.2,29.78,SSW,206,6.7,9.4,84,0.00,,,0.00,WUHU216HW,2013-03-18 11:35:00,
2013-03-18 07:38:00,59.0,54.2,29.78,ESE,113,4.5,9.4,84,0.00,,,0.00,WUHU216HW,2013-03-18 11:38:00,
2013-03-18 07:39:00,58.9,54.4,29.78,SSE,158,4.3,9.4,85,0.00,,,0.00,WUHU216HW,2013-03-18 11:39:00,
2013-03-18 07:40:00,58.9,54.4,29.78,SSE,158,4.3,9.4,85,0.00,,,0.00,WUHU216HW,2013-03-18 11:40:00,
2013-03-18 07:44:00,58.9,54.0,29.77,ESE,113,8.9,8.9,84,0.00,,,0.00,WUHU216HW,2013-03-18 11:44:00,
2013-03-18 07:45:00,58.9,54.0,29.78,SE,146,7.4,8.9,84,0.00,,,0.00,WUHU216HW,2013-03-18 11:45:00,
2013-03-18 07:49:00,59.0,54.5,29.78,SSE,158,6.9,8.9,85,0.00,,,0.00,WUHU216HW,2013-03-18 11:49:00,
2013-03-18 07:50:00,59.0,54.5,29.78,ESE,113,8.3,8.9,85,0.00,,,0.00,WUHU216HW,2013-03-18 11:50:00,
2013-03-18 07:51:00,59.0,54.5,29.78,SE,135,8.9,8.9,85,0.00,,,0.00,WUHU216HW,2013-03-18 11:51:00,
2013-03-18 07:54:00,59.0,54.2,29.78,SSE,158,7.6,8.9,84,0.00,,,0.00,WUHU216HW,2013-03-18 11:54:00,
2013-03-18 07:55:00,59.0,54.2,29.78,SSE,149,5.9,8.9,84,0.00,,,0.00,WUHU216HW,2013-03-18 11:55:00,
2013-03-18 07:57:00,59.2,54.4,29.78,SSE,158,6.3,8.9,84,0.00,,,0.00,WUHU216HW,2013-03-18 11:57:00,
2013-03-18 08:00:00,59.2,54.4,29.78,SW,225,8.5,8.9,84,0.00,,,0.00,WUHU216HW,2013-03-18 12:00:00,
2013-03-18 08:01:00,59.2,54.4,29.78,South,183,8.1,8.5,84,0.00,,,0.00,WUHU216HW,2013-03-18 12:01:00,
2013-03-18 08:02:00,59.4,54.5,29.78,South,170,5.7,8.5,84,0.00,,,0.00,WUHU216HW,2013-03-18 12:02:00,
2013-03-18 08:03:00,59.4,54.5,29.78,SSE,158,7.6,8.5,84,0.00,,,0.00,WUHU216HW,2013-03-18 12:03:00,
2013-03-18 08:06:00,59.4,54.5,29.78,South,189,7.4,8.9,84,0.00,,,0.00,WUHU216HW,2013-03-18 12:06:00,
2013-03-18 08:08:00,59.4,54.5,29.77,South,180,5.9,9.8,84,0.00,,,0.00,WUHU216HW,2013-03-18 12:08:00,
2013-03-18 08:11:00,59.4,54.3,29.77,SE,135,8.5,9.8,83,0.00,,,0.00,WUHU216HW,2013-03-18 12:11:00,
2013-03-18 08:12:00,59.4,54.3,29.77,SE,135,8.5,9.8,83,0.00,,,0.00,WUHU216HW,2013-03-18 12:12:00,
2013-03-18 08:13:00,59.4,54.5,29.77,SSE,158,11.6,11.6,84,0.00,,,0.00,WUHU216HW,2013-03-18 12:13:00,
2013-03-18 08:14:00,59.4,54.5,29.77,SSE,158,11.6,11.6,84,0.00,,,0.00,WUHU216HW,2013-03-18 12:14:00,
2013-03-18 08:18:00,59.4,54.3,29.77,SE,135,6.9,11.6,83,0.00,,,0.00,WUHU216HW,2013-03-18 12:18:00,
2013-03-18 08:19:00,59.4,54.5,29.77,SSE,158,10.3,11.6,84,0.00,,,0.00,WUHU216HW,2013-03-18 12:19:00,
2013-03-18 08:23:00,59.4,54.5,29.76,SSE,156,5.7,11.6,84,0.00,,,0.00,WUHU216HW,2013-03-18 12:23:00,
2013-03-18 08:24:00,59.4,54.5,29.76,ESE,113,9.8,10.3,84,0.00,,,0.00,WUHU216HW,2013-03-18 12:24:00,
2013-03-18 08:28:00,59.2,54.4,29.76,SE,135,4.8,10.3,84,0.00,,,0.00,WUHU216HW,2013-03-18 12:28:00,
2013-03-18 08:29:00,59.4,54.5,29.76,SSE,158,5.6,9.8,84,0.00,,,0.00,WUHU216HW,2013-03-18 12:29:00,
2013-03-18 08:33:00,59.2,54.4,29.76,SSW,203,9.8,9.8,84,0.00,,,0.00,WUHU216HW,2013-03-18 12:33:00,
2013-03-18 08:34:00,59.2,54.4,29.76,SSW,203,8.4,9.8,84,0.00,,,0.00,WUHU216HW,2013-03-18 12:34:00,
2013-03-18 08:35:00,59.2,54.4,29.76,SSW,203,8.4,9.8,84,0.00,,,0.00,WUHU216HW,2013-03-18 12:35:00,
2013-03-18 08:39:00,59.4,54.5,29.76,SSW,213,10.5,12.5,84,0.00,,,0.00,WUHU216HW,2013-03-18 12:39:00,
2013-03-18 08:40:00,59.2,54.4,29.76,SSE,168,7.9,12.5,84,0.00,,,0.00,WUHU216HW,2013-03-18 12:40:00,
2013-03-18 08:44:00,59.4,54.5,29.76,SE,135,8.5,12.5,84,0.00,,,0.00,WUHU216HW,2013-03-18 12:44:00,
2013-03-18 08:45:00,59.4,54.5,29.76,SE,135,7.7,12.5,84,0.00,,,0.00,WUHU216HW,2013-03-18 12:45:00,
2013-03-18 08:49:00,59.4,54.3,29.76,SW,225,7.4,8.5,83,0.00,,,0.00,WUHU216HW,2013-03-18 12:49:00,
2013-03-18 08:50:00,59.4,54.3,29.76,SSE,158,7.6,8.5,83,0.00,,,0.00,WUHU216HW,2013-03-18 12:50:00,
2013-03-18 08:52:00,59.4,54.3,29.76,SSE,158,6.9,8.5,83,0.00,,,0.00,WUHU216HW,2013-03-18 12:52:00,
2013-03-18 08:54:00,59.4,54.3,29.76,SSE,158,7.6,7.6,83,0.00,,,0.00,WUHU216HW,2013-03-18 12:54:00,
2013-03-18 08:56:00,59.6,54.5,29.76,SSE,166,9.1,11.4,83,0.00,,,0.00,WUHU216HW,2013-03-18 12:56:00,
2013-03-18 08:57:00,59.6,54.5,29.76,South,180,6.2,11.4,83,0.00,,,0.00,WUHU216HW,2013-03-18 12:57:00,
2013-03-18 09:00:00,59.6,54.5,29.76,South,190,6.9,11.4,83,0.00,,,0.00,WUHU216HW,2013-03-18 13:00:00,
2013-03-18 09:01:00,59.6,54.5,29.76,SSE,158,8.9,11.4,83,0.00,,,0.00,WUHU216HW,2013-03-18 13:01:00,
2013-03-18 09:02:00,59.6,54.5,29.76,South,180,8.8,11.4,83,0.00,,,0.00,WUHU216HW,2013-03-18 13:02:00,
2013-03-18 09:03:00,59.6,54.5,29.76,South,187,6.7,11.4,83,0.00,,,0.00,WUHU216HW,2013-03-18 13:03:00,
2013-03-18 09:05:00,59.6,54.5,29.77,SE,135,6.9,9.8,83,0.00,,,0.00,WUHU216HW,2013-03-18 13:05:00,
2013-03-18 09:06:00,59.8,54.6,29.76,SSE,156,5.2,9.8,83,0.00,,,0.00,WUHU216HW,2013-03-18 13:06:00,
2013-03-18 09:08:00,59.8,54.6,29.76,SSE,158,4.7,9.8,83,0.00,,,0.00,WUHU216HW,2013-03-18 13:08:00,
2013-03-18 09:11:00,59.8,54.6,29.76,SE,135,9.2,9.2,83,0.00,,,0.00,WUHU216HW,2013-03-18 13:11:00,
2013-03-18 09:13:00,59.8,54.6,29.76,SSW,203,9.0,12.1,83,0.00,,,0.00,WUHU216HW,2013-03-18 13:13:00,
2013-03-18 09:17:00,59.8,54.6,29.76,South,172,6.9,12.1,83,0.00,,,0.00,WUHU216HW,2013-03-18 13:17:00,
2013-03-18 09:18:00,59.8,54.6,29.76,South,180,8.9,12.1,83,0.00,,,0.00,WUHU216HW,2013-03-18 13:18:00,
2013-03-18 09:19:00,59.8,54.6,29.76,West,270,9.8,12.1,83,0.00,,,0.00,WUHU216HW,2013-03-18 13:19:00,
2013-03-18 09:23:00,59.9,54.8,29.76,SSE,158,10.5,10.5,83,0.00,,,0.00,WUHU216HW,2013-03-18 13:23:00,
2013-03-18 09:24:00,59.9,54.8,29.76,SSE,158,7.5,10.5,83,0.00,,,0.00,WUHU216HW,2013-03-18 13:24:00,
2013-03-18 09:28:00,60.3,54.8,29.76,SE,135,9.8,10.5,82,0.00,,,0.00,WUHU216HW,2013-03-18 13:28:00,
2013-03-18 09:29:00,60.3,54.8,29.76,SE,135,9.8,10.5,82,0.00,,,0.00,WUHU216HW,2013-03-18 13:29:00,
2013-03-18 09:30:00,60.3,54.8,29.76,SE,144,8.4,10.5,82,0.00,,,0.00,WUHU216HW,2013-03-18 13:30:00,
2013-03-18 09:34:00,60.5,54.7,29.76,SSE,167,8.1,12.1,81,0.00,,,0.00,WUHU216HW,2013-03-18 13:34:00,
2013-03-18 09:35:00,60.5,54.7,29.76,SSE,158,6.7,12.1,81,0.00,,,0.00,WUHU216HW,2013-03-18 13:35:00,
2013-03-18 09:39:00,60.5,54.7,29.76,SSE,158,8.5,12.1,81,0.00,,,0.00,WUHU216HW,2013-03-18 13:39:00,
2013-03-18 09:40:00,60.5,54.7,29.76,South,173,6.6,12.1,81,0.00,,,0.00,WUHU216HW,2013-03-18 13:40:00,
2013-03-18 09:41:00,60.5,54.7,29.76,SE,135,8.1,12.1,81,0.00,,,0.00,WUHU216HW,2013-03-18 13:41:00,
2013-03-18 09:44:00,60.5,54.7,29.76,South,180,9.2,9.6,81,0.00,,,0.00,WUHU216HW,2013-03-18 13:44:00,
2013-03-18 09:45:00,60.5,54.7,29.76,South,180,9.2,9.6,81,0.00,,,0.00,WUHU216HW,2013-03-18 13:45:00,
2013-03-18 09:46:00,60.5,54.7,29.76,East,90,12.1,12.1,81,0.00,,,0.00,WUHU216HW,2013-03-18 13:46:00,
2013-03-18 09:47:00,60.5,54.7,29.76,ESE,117,10.2,12.1,81,0.00,,,0.00,WUHU216HW,2013-03-18 13:47:00,
2013-03-18 09:50:00,60.5,54.4,29.76,ESE,119,6.4,12.1,80,0.00,,,0.00,WUHU216HW,2013-03-18 13:50:00,
2013-03-18 09:51:00,60.5,54.4,29.76,ESE,113,6.0,12.1,80,0.00,,,0.00,WUHU216HW,2013-03-18 13:51:00,
2013-03-18 09:54:00,60.7,54.5,29.76,SE,131,6.6,12.1,80,0.00,,,0.00,WUHU216HW,2013-03-18 13:54:00,
2013-03-18 09:55:00,60.7,54.5,29.76,SSW,203,8.1,12.1,80,0.00,,,0.00,WUHU216HW,2013-03-18 13:55:00,
2013-03-18 09:58:00,60.8,54.7,29.75,SSE,155,10.3,11.4,80,0.00,,,0.00,WUHU216HW,2013-03-18 13:58:00,
2013-03-18 09:59:00,60.8,54.7,29.75,SSE,155,10.3,11.4,80,0.00,,,0.00,WUHU216HW,2013-03-18 13:59:00,
2013-03-18 10:00:00,60.8,54.7,29.75,SSE,158,9.4,11.4,80,0.00,,,0.00,WUHU216HW,2013-03-18 14:00:00,
2013-03-18 10:03:00,60.8,54.7,29.75,SE,135,7.7,11.4,80,0.00,,,0.00,WUHU216HW,2013-03-18 14:03:00,
2013-03-18 10:04:00,60.8,54.7,29.75,SSE,160,5.6,11.4,80,0.00,,,0.00,WUHU216HW,2013-03-18 14:04:00,
2013-03-18 10:05:00,61.0,54.6,29.75,South,180,8.7,11.4,79,0.00,,,0.00,WUHU216HW,2013-03-18 14:05:00,
2013-03-18 10:08:00,61.2,54.7,29.75,South,177,7.6,10.3,79,0.00,,,0.00,WUHU216HW,2013-03-18 14:08:00,
2013-03-18 10:10:00,61.4,54.8,29.75,South,177,7.3,10.3,79,0.00,,,0.00,WUHU216HW,2013-03-18 14:10:00,
2013-03-18 10:12:00,61.9,55.4,29.76,ESE,113,9.8,10.3,79,0.00,,,0.00,WUHU216HW,2013-03-18 14:12:00,
2013-03-18 10:14:00,62.3,55.3,29.76,SSW,203,9.4,10.3,78,0.00,,,0.00,WUHU216HW,2013-03-18 14:14:00,
2013-03-18 10:15:00,62.6,55.3,29.75,SSW,203,9.8,11.2,77,0.00,,,0.00,WUHU216HW,2013-03-18 14:15:00,
2013-03-18 10:16:00,62.6,55.3,29.75,SSW,203,9.8,11.2,77,0.00,,,0.00,WUHU216HW,2013-03-18 14:16:00,
2013-03-18 10:17:00,62.6,55.3,29.75,South,185,6.9,11.2,77,0.00,,,0.00,WUHU216HW,2013-03-18 14:17:00,
2013-03-18 10:20:00,62.6,55.3,29.75,SE,135,7.8,11.2,77,0.00,,,0.00,WUHU216HW,2013-03-18 14:20:00,
2013-03-18 10:21:00,62.6,54.9,29.75,East,90,11.2,11.2,76,0.00,,,0.00,WUHU216HW,2013-03-18 14:21:00,
2013-03-18 10:23:00,62.5,54.7,29.74,SE,145,10.1,11.2,76,0.00,,,0.00,WUHU216HW,2013-03-18 14:23:00,
2013-03-18 10:25:00,62.3,54.5,29.75,SSW,203,12.8,12.8,76,0.00,,,0.00,WUHU216HW,2013-03-18 14:25:00,
2013-03-18 10:26:00,62.3,54.5,29.75,SSW,195,9.4,12.8,76,0.00,,,0.00,WUHU216HW,2013-03-18 14:26:00,
2013-03-18 10:28:00,62.3,54.9,29.75,East,90,6.5,12.8,77,0.00,,,0.00,WUHU216HW,2013-03-18 14:28:00,
2013-03-18 10:30:00,62.6,55.3,29.76,SW,225,5.8,12.8,77,0.00,,,0.00,WUHU216HW,2013-03-18 14:30:00,
2013-03-18 10:32:00,62.8,55.1,29.75,SSE,167,5.9,12.8,76,0.00,,,0.00,WUHU216HW,2013-03-18 14:32:00,
2013-03-18 10:33:00,62.8,55.1,29.75,South,180,6.9,12.8,76,0.00,,,0.00,WUHU216HW,2013-03-18 14:33:00,
2013-03-18 10:35:00,62.8,55.1,29.75,SE,135,7.4,7.4,76,0.00,,,0.00,WUHU216HW,2013-03-18 14:35:00,
2013-03-18 10:37:00,62.6,54.9,29.75,South,177,6.8,7.4,76,0.00,,,0.00,WUHU216HW,2013-03-18 14:37:00,
2013-03-18 10:38:00,62.6,54.9,29.75,SSW,203,8.5,8.5,76,0.00,,,0.00,WUHU216HW,2013-03-18 14:38:00,
2013-03-18 10:39:00,62.5,54.7,29.75,ESE,113,8.5,8.5,76,0.00,,,0.00,WUHU216HW,2013-03-18 14:39:00,
2013-03-18 10:40:00,62.3,54.5,29.75,SSE,149,7.4,8.5,76,0.00,,,0.00,WUHU216HW,2013-03-18 14:40:00,
2013-03-18 10:42:00,62.1,54.5,29.75,SSE,158,6.0,8.5,76,0.00,,,0.00,WUHU216HW,2013-03-18 14:42:00,
2013-03-18 10:44:00,61.9,54.6,29.75,SSE,158,6.3,8.5,77,0.00,,,0.00,WUHU216HW,2013-03-18 14:44:00,
2013-03-18 10:48:00,61.6,54.6,29.75,SE,135,9.8,9.8,78,0.00,,,0.00,WUHU216HW,2013-03-18 14:48:00,
2013-03-18 10:50:00,61.4,54.5,29.75,SW,225,7.2,9.8,78,0.00,,,0.00,WUHU216HW,2013-03-18 14:50:00,
2013-03-18 10:53:00,60.8,54.4,29.75,South,180,7.8,9.8,79,0.00,,,0.00,WUHU216HW,2013-03-18 14:53:00,
2013-03-18 10:54:00,60.8,54.4,29.75,South,180,7.8,9.8,79,0.00,,,0.00,WUHU216HW,2013-03-18 14:54:00,
2013-03-18 10:55:00,60.7,54.5,29.75,South,180,9.8,9.8,80,0.00,,,0.00,WUHU216HW,2013-03-18 14:55:00,
2013-03-18 10:56:00,60.5,54.4,29.75,SSE,164,7.7,9.8,80,0.00,,,0.00,WUHU216HW,2013-03-18 14:56:00,
2013-03-18 10:59:00,60.3,54.2,29.75,South,180,5.6,9.8,80,0.00,,,0.00,WUHU216HW,2013-03-18 14:59:00,
2013-03-18 11:01:00,60.3,54.2,29.75,SSE,149,7.2,9.8,80,0.00,,,0.00,WUHU216HW,2013-03-18 15:01:00,
2013-03-18 11:04:00,60.1,54.0,29.75,SSW,213,8.9,9.8,80,0.00,,,0.00,WUHU216HW,2013-03-18 15:04:00,
2013-03-18 11:05:00,60.1,54.0,29.75,ESE,113,11.4,11.4,80,0.00,,,0.00,WUHU216HW,2013-03-18 15:05:00,
2013-03-18 11:06:00,59.9,53.8,29.75,ESE,121,9.5,11.4,80,0.00,,,0.00,WUHU216HW,2013-03-18 15:06:00,
2013-03-18 11:07:00,59.8,53.6,29.76,ESE,113,7.6,11.4,80,0.00,,,0.00,WUHU216HW,2013-03-18 15:07:00,
2013-03-18 11:10:00,59.6,53.5,29.75,SE,135,7.1,11.4,80,0.00,,,0.00,WUHU216HW,2013-03-18 15:10:00,
2013-03-18 11:11:00,59.4,53.3,29.76,SSE,158,7.8,11.4,80,0.00,,,0.00,WUHU216HW,2013-03-18 15:11:00,
2013-03-18 11:12:00,59.0,52.9,29.76,SSW,203,5.4,11.4,80,0.01,,,0.01,WUHU216HW,2013-03-18 15:12:00,
2013-03-18 11:16:00,58.5,52.4,29.76,SSE,157,8.6,8.7,80,0.02,,,0.02,WUHU216HW,2013-03-18 15:16:00,
2013-03-18 11:17:00,58.1,52.4,29.76,SE,135,13.0,13.0,81,0.05,,,0.05,WUHU216HW,2013-03-18 15:17:00,
2013-03-18 11:18:00,58.0,52.2,29.76,SE,135,9.9,13.0,81,0.05,,,0.05,WUHU216HW,2013-03-18 15:18:00,
2013-03-18 11:21:00,57.4,51.9,29.76,SE,135,8.5,13.0,82,0.05,,,0.05,WUHU216HW,2013-03-18 15:21:00,
2013-03-18 11:22:00,57.4,51.9,29.75,SE,135,9.4,13.0,82,0.05,,,0.05,WUHU216HW,2013-03-18 15:22:00,
2013-03-18 11:23:00,57.2,51.8,29.75,SE,135,8.9,13.0,82,0.07,,,0.07,WUHU216HW,2013-03-18 15:23:00,
2013-03-18 11:24:00,57.2,51.8,29.75,East,90,8.9,13.0,82,0.07,,,0.07,WUHU216HW,2013-03-18 15:24:00,
2013-03-18 11:27:00,57.4,52.3,29.74,SE,135,6.5,12.1,83,0.07,,,0.07,WUHU216HW,2013-03-18 15:27:00,
2013-03-18 11:29:00,57.4,52.3,29.74,SE,124,5.5,9.4,83,0.07,,,0.07,WUHU216HW,2013-03-18 15:29:00,
2013-03-18 11:32:00,57.2,51.8,29.75,SE,135,7.6,8.9,82,0.07,,,0.07,WUHU216HW,2013-03-18 15:32:00,
2013-03-18 11:33:00,57.2,51.8,29.75,SE,135,8.3,8.9,82,0.07,,,0.07,WUHU216HW,2013-03-18 15:33:00,
2013-03-18 11:34:00,57.1,51.6,29.75,SSW,203,8.7,8.7,82,0.07,,,0.07,WUHU216HW,2013-03-18 15:34:00,
2013-03-18 11:35:00,57.1,51.9,29.75,SE,135,11.4,11.4,83,0.07,,,0.07,WUHU216HW,2013-03-18 15:35:00,
2013-03-18 11:38:00,56.7,51.6,29.75,ENE,68,9.6,11.4,83,0.07,,,0.07,WUHU216HW,2013-03-18 15:38:00,
2013-03-18 11:39:00,56.5,51.4,29.75,East,97,7.2,11.4,83,0.07,,,0.07,WUHU216HW,2013-03-18 15:39:00,
2013-03-18 11:41:00,56.5,51.4,29.75,SE,125,4.3,11.4,83,0.07,,,0.07,WUHU216HW,2013-03-18 15:41:00,
2013-03-18 11:43:00,56.5,51.4,29.75,SE,135,8.1,11.4,83,0.07,,,0.07,WUHU216HW,2013-03-18 15:43:00,
2013-03-18 11:44:00,56.3,50.9,29.75,ESE,113,14.3,14.3,82,0.07,,,0.07,WUHU216HW,2013-03-18 15:44:00,
2013-03-18 11:46:00,56.2,50.7,29.75,SE,135,7.6,14.3,82,0.07,,,0.07,WUHU216HW,2013-03-18 15:46:00,
2013-03-18 11:48:00,56.2,50.7,29.74,SSE,158,8.1,14.3,82,0.07,,,0.07,WUHU216HW,2013-03-18 15:48:00,
2013-03-18 11:49:00,56.2,50.7,29.74,South,191,6.8,14.3,82,0.07,,,0.07,WUHU216HW,2013-03-18 15:49:00,
2013-03-18 11:50:00,56.2,50.7,29.74,South,191,6.8,14.3,82,0.07,,,0.07,WUHU216HW,2013-03-18 15:50:00,
2013-03-18 11:51:00,56.0,50.5,29.74,SE,135,15.8,17.4,82,0.07,,,0.07,WUHU216HW,2013-03-18 15:51:00,
2013-03-18 11:54:00,55.8,50.3,29.75,South,183,9.1,17.4,82,0.07,,,0.07,WUHU216HW,2013-03-18 15:54:00,
2013-03-18 11:55:00,55.8,50.3,29.74,SE,135,8.6,17.4,82,0.07,,,0.07,WUHU216HW,2013-03-18 15:55:00,
2013-03-18 11:56:00,55.8,50.3,29.74,SE,135,8.6,17.4,82,0.07,,,0.07,WUHU216HW,2013-03-18 15:56:00,
2013-03-18 11:57:00,55.8,50.3,29.74,SSE,158,9.4,17.4,82,0.07,,,0.07,WUHU216HW,2013-03-18 15:57:00,
2013-03-18 11:59:00,55.8,50.3,29.75,SE,135,12.1,17.4,82,0.07,,,0.07,WUHU216HW,2013-03-18 15:59:00,
2013-03-18 12:00:00,55.8,50.3,29.74,SSE,150,7.1,14.1,82,0.07,,,0.07,WUHU216HW,2013-03-18 16:00:00,
2013-03-18 12:01:00,55.8,50.3,29.74,SSE,150,7.1,14.1,82,0.07,,,0.07,WUHU216HW,2013-03-18 16:01:00,
2013-03-18 12:02:00,55.8,50.3,29.74,SE,135,10.5,12.1,82,0.07,,,0.07,WUHU216HW,2013-03-18 16:02:00,
2013-03-18 12:05:00,55.8,50.3,29.74,ESE,113,10.5,12.1,82,0.07,,,0.07,WUHU216HW,2013-03-18 16:05:00,
2013-03-18 12:06:00,55.8,50.3,29.74,ESE,123,9.9,12.1,82,0.07,,,0.07,WUHU216HW,2013-03-18 16:06:00,
2013-03-18 12:07:00,55.8,50.3,29.74,SE,124,8.9,12.1,82,0.07,,,0.07,WUHU216HW,2013-03-18 16:07:00,
2013-03-18 12:11:00,55.6,50.1,29.74,SSE,158,11.6,11.6,82,0.06,,,0.07,WUHU216HW,2013-03-18 16:11:00,
2013-03-18 12:12:00,55.6,50.1,29.74,SSE,158,10.1,11.6,82,0.05,,,0.07,WUHU216HW,2013-03-18 16:12:00,
2013-03-18 12:14:00,55.6,50.1,29.74,ESE,113,6.3,11.6,82,0.05,,,0.07,WUHU216HW,2013-03-18 16:14:00,
2013-03-18 12:17:00,55.4,50.0,29.74,SSE,158,10.1,11.6,82,0.02,,,0.07,WUHU216HW,2013-03-18 16:17:00,
2013-03-18 12:18:00,55.4,50.0,29.74,SE,139,8.5,11.6,82,0.02,,,0.07,WUHU216HW,2013-03-18 16:18:00,
2013-03-18 12:19:00,55.3,49.8,29.74,SE,133,6.8,11.6,82,0.02,,,0.07,WUHU216HW,2013-03-18 16:19:00,
2013-03-18 12:22:00,55.3,49.8,29.74,SE,135,12.8,12.8,82,0.00,,,0.07,WUHU216HW,2013-03-18 16:22:00,
2013-03-18 12:23:00,55.3,49.8,29.74,SE,135,10.6,12.8,82,0.00,,,0.07,WUHU216HW,2013-03-18 16:23:00,
2013-03-18 12:25:00,55.3,49.8,29.74,ESE,113,6.5,12.8,82,0.00,,,0.07,WUHU216HW,2013-03-18 16:25:00,
2013-03-18 12:28:00,55.3,49.8,29.74,SE,135,11.4,12.8,82,0.00,,,0.07,WUHU216HW,2013-03-18 16:28:00,
2013-03-18 12:29:00,55.1,49.7,29.74,SE,135,10.3,12.8,82,0.00,,,0.07,WUHU216HW,2013-03-18 16:29:00,
2013-03-18 12:30:00,55.1,49.7,29.74,SSE,155,6.8,12.8,82,0.00,,,0.07,WUHU216HW,2013-03-18 16:30:00,
2013-03-18 12:33:00,55.1,49.7,29.74,ESE,113,10.7,12.3,82,0.00,,,0.07,WUHU216HW,2013-03-18 16:33:00,
2013-03-18 12:34:00,55.1,49.7,29.74,ESE,117,6.9,12.3,82,0.00,,,0.07,WUHU216HW,2013-03-18 16:34:00,
2013-03-18 12:37:00,54.9,49.8,29.74,SSE,158,6.5,11.4,83,0.00,,,0.07,WUHU216HW,2013-03-18 16:37:00,
2013-03-18 12:39:00,54.9,49.8,29.74,South,176,5.5,10.7,83,0.00,,,0.07,WUHU216HW,2013-03-18 16:39:00,
2013-03-18 12:42:00,54.9,49.8,29.73,SE,135,12.1,12.1,83,0.00,,,0.07,WUHU216HW,2013-03-18 16:42:00,
2013-03-18 12:44:00,54.9,49.8,29.73,SE,135,6.9,12.1,83,0.00,,,0.07,WUHU216HW,2013-03-18 16:44:00,
2013-03-18 12:45:00,54.9,49.8,29.73,South,180,6.9,12.1,83,0.00,,,0.07,WUHU216HW,2013-03-18 16:45:00,
2013-03-18 12:47:00,54.9,49.8,29.73,SSE,158,8.5,12.1,83,0.00,,,0.07,WUHU216HW,2013-03-18 16:47:00,
2013-03-18 12:50:00,54.9,49.8,29.73,SE,135,7.5,12.1,83,0.00,,,0.07,WUHU216HW,2013-03-18 16:50:00,
2013-03-18 12:52:00,55.1,50.0,29.73,East,90,7.4,10.3,83,0.00,,,0.07,WUHU216HW,2013-03-18 16:52:00,
2013-03-18 12:55:00,55.1,50.0,29.73,SSE,158,7.8,10.3,83,0.00,,,0.07,WUHU216HW,2013-03-18 16:55:00,
2013-03-18 12:56:00,55.1,49.7,29.73,SSE,158,6.2,10.3,82,0.00,,,0.07,WUHU216HW,2013-03-18 16:56:00,
2013-03-18 12:58:00,55.1,49.7,29.73,ESE,113,5.4,7.8,82,0.00,,,0.07,WUHU216HW,2013-03-18 16:58:00,
2013-03-18 12:59:00,55.1,50.0,29.73,ESE,113,8.5,8.5,83,0.00,,,0.07,WUHU216HW,2013-03-18 16:59:00,
2013-03-18 13:00:00,55.1,50.0,29.73,ESE,122,7.5,8.5,83,0.00,,,0.07,WUHU216HW,2013-03-18 17:00:00,
2013-03-18 13:03:00,54.9,49.8,29.74,SE,135,6.5,8.5,83,0.00,,,0.07,WUHU216HW,2013-03-18 17:03:00,
2013-03-18 13:04:00,54.9,49.8,29.74,SE,135,6.5,8.5,83,0.00,,,0.07,WUHU216HW,2013-03-18 17:04:00,
2013-03-18 13:05:00,54.7,49.6,29.74,SE,135,10.1,10.1,83,0.00,,,0.07,WUHU216HW,2013-03-18 17:05:00,
2013-03-18 13:06:00,54.7,50.0,29.73,SE,135,8.8,10.1,84,0.02,,,0.09,WUHU216HW,2013-03-18 17:06:00,
2013-03-18 13:10:00,54.5,49.8,29.74,SW,225,3.6,10.1,84,0.02,,,0.09,WUHU216HW,2013-03-18 17:10:00,
2013-03-18 13:11:00,54.5,49.8,29.74,SSE,158,6.5,10.1,84,0.02,,,0.09,WUHU216HW,2013-03-18 17:11:00,
2013-03-18 13:13:00,54.7,50.0,29.74,South,182,5.1,10.1,84,0.02,,,0.09,WUHU216HW,2013-03-18 17:13:00,
2013-03-18 13:15:00,54.5,49.8,29.74,SSE,158,3.4,7.4,84,0.02,,,0.09,WUHU216HW,2013-03-18 17:15:00,
2013-03-18 13:16:00,54.5,49.8,29.74,SSE,158,3.6,6.5,84,0.02,,,0.09,WUHU216HW,2013-03-18 17:16:00,
2013-03-18 13:17:00,54.4,49.6,29.74,SE,135,4.3,6.5,84,0.02,,,0.09,WUHU216HW,2013-03-18 17:17:00,
2013-03-18 13:18:00,54.5,49.8,29.74,SSE,158,4.7,6.5,84,0.02,,,0.09,WUHU216HW,2013-03-18 17:18:00,
2013-03-18 13:20:00,54.5,49.8,29.73,SSE,157,4.2,6.5,84,0.02,,,0.09,WUHU216HW,2013-03-18 17:20:00,
2013-03-18 13:21:00,54.5,49.8,29.74,South,169,3.8,4.7,84,0.02,,,0.09,WUHU216HW,2013-03-18 17:21:00,
2013-03-18 13:22:00,54.5,49.8,29.74,South,180,4.7,4.7,84,0.02,,,0.09,WUHU216HW,2013-03-18 17:22:00,
2013-03-18 13:23:00,54.5,50.1,29.74,South,180,10.1,10.1,85,0.02,,,0.09,WUHU216HW,2013-03-18 17:23:00,
2013-03-18 13:25:00,54.5,50.1,29.73,SE,135,13.2,13.2,85,0.02,,,0.09,WUHU216HW,2013-03-18 17:25:00,
2013-03-18 13:28:00,54.4,50.0,29.73,SSW,203,6.9,13.2,85,0.02,,,0.09,WUHU216HW,2013-03-18 17:28:00,
2013-03-18 13:30:00,54.4,50.0,29.73,SSE,158,6.3,13.2,85,0.02,,,0.09,WUHU216HW,2013-03-18 17:30:00,
2013-03-18 13:33:00,54.2,49.8,29.73,SSE,158,3.8,13.2,85,0.02,,,0.09,WUHU216HW,2013-03-18 17:33:00,
2013-03-18 13:35:00,54.2,49.8,29.74,South,180,6.0,8.1,85,0.03,,,0.10,WUHU216HW,2013-03-18 17:35:00,
2013-03-18 13:37:00,54.0,49.6,29.73,SE,135,4.0,6.9,85,0.03,,,0.10,WUHU216HW,2013-03-18 17:37:00,
2013-03-18 13:39:00,54.0,49.6,29.73,SSE,157,3.0,6.7,85,0.03,,,0.10,WUHU216HW,2013-03-18 17:39:00,
2013-03-18 13:40:00,54.0,49.6,29.73,SE,135,4.7,6.0,85,0.03,,,0.10,WUHU216HW,2013-03-18 17:40:00,
2013-03-18 13:42:00,54.2,50.0,29.73,SE,135,5.3,7.2,86,0.03,,,0.10,WUHU216HW,2013-03-18 17:42:00,
2013-03-18 13:44:00,54.2,49.8,29.73,SE,135,5.4,7.2,85,0.03,,,0.10,WUHU216HW,2013-03-18 17:44:00,
2013-03-18 13:45:00,54.2,49.8,29.73,SE,142,4.0,7.2,85,0.03,,,0.10,WUHU216HW,2013-03-18 17:45:00,
2013-03-18 13:48:00,54.4,50.0,29.73,South,180,6.7,7.2,85,0.03,,,0.10,WUHU216HW,2013-03-18 17:48:00,
2013-03-18 13:50:00,54.2,50.0,29.72,SSW,195,4.0,7.2,86,0.03,,,0.10,WUHU216HW,2013-03-18 17:50:00,
2013-03-18 13:52:00,54.4,50.2,29.73,South,180,3.6,6.7,86,0.03,,,0.10,WUHU216HW,2013-03-18 17:52:00,
2013-03-18 13:54:00,54.2,50.0,29.72,South,182,2.8,6.7,86,0.03,,,0.10,WUHU216HW,2013-03-18 17:54:00,
2013-03-18 13:55:00,54.2,50.0,29.72,SSW,203,5.4,6.7,86,0.03,,,0.10,WUHU216HW,2013-03-18 17:55:00,
2013-03-18 13:57:00,54.2,50.0,29.72,SSE,159,3.3,5.4,86,0.03,,,0.10,WUHU216HW,2013-03-18 17:57:00,
2013-03-18 13:59:00,54.2,50.0,29.72,South,180,6.3,6.3,86,0.03,,,0.10,WUHU216HW,2013-03-18 17:59:00,
2013-03-18 14:00:00,54.0,49.9,29.72,South,180,4.8,6.3,86,0.03,,,0.10,WUHU216HW,2013-03-18 18:00:00,
2013-03-18 14:01:00,54.2,50.0,29.71,South,181,4.1,6.3,86,0.03,,,0.10,WUHU216HW,2013-03-18 18:01:00,
2013-03-18 14:03:00,54.2,50.0,29.71,ESE,113,2.9,6.3,86,0.03,,,0.10,WUHU216HW,2013-03-18 18:03:00,
2013-03-18 14:04:00,54.2,50.0,29.71,SW,225,3.1,6.3,86,0.01,,,0.10,WUHU216HW,2013-03-18 18:04:00,
2013-03-18 14:05:00,54.2,50.0,29.71,South,180,3.8,6.3,86,0.01,,,0.10,WUHU216HW,2013-03-18 18:05:00,
2013-03-18 14:07:00,54.2,50.0,29.71,SSW,203,4.5,6.3,86,0.01,,,0.10,WUHU216HW,2013-03-18 18:07:00,
2013-03-18 14:08:00,54.2,50.0,29.71,WSW,248,4.7,6.3,86,0.01,,,0.10,WUHU216HW,2013-03-18 18:08:00,
2013-03-18 14:10:00,54.2,50.0,29.71,SW,219,4.1,4.7,86,0.01,,,0.10,WUHU216HW,2013-03-18 18:10:00,
2013-03-18 14:13:00,54.0,49.9,29.71,SSE,158,4.7,4.7,86,0.01,,,0.10,WUHU216HW,2013-03-18 18:13:00,
2013-03-18 14:14:00,54.0,49.9,29.71,SE,135,6.0,6.0,86,0.01,,,0.10,WUHU216HW,2013-03-18 18:14:00,
2013-03-18 14:15:00,54.0,49.9,29.71,SE,144,5.0,6.0,86,0.01,,,0.10,WUHU216HW,2013-03-18 18:15:00,
2013-03-18 14:16:00,54.0,49.9,29.71,SE,135,7.4,7.4,86,0.01,,,0.10,WUHU216HW,2013-03-18 18:16:00,
2013-03-18 14:18:00,54.0,49.9,29.71,SE,134,5.7,7.4,86,0.05,,,0.14,WUHU216HW,2013-03-18 18:18:00,
2013-03-18 14:19:00,54.0,49.9,29.71,SE,135,6.9,7.4,86,0.05,,,0.14,WUHU216HW,2013-03-18 18:19:00,
2013-03-18 14:20:00,54.0,49.9,29.71,SE,143,5.3,7.4,86,0.05,,,0.14,WUHU216HW,2013-03-18 18:20:00,
2013-03-18 14:21:00,54.0,49.9,29.71,SE,135,4.9,7.4,86,0.05,,,0.14,WUHU216HW,2013-03-18 18:21:00,
2013-03-18 14:23:00,54.2,50.0,29.71,SSE,158,5.4,7.4,86,0.05,,,0.14,WUHU216HW,2013-03-18 18:23:00,
2013-03-18 14:25:00,54.2,50.0,29.70,South,190,4.7,7.4,86,0.05,,,0.14,WUHU216HW,2013-03-18 18:25:00,
2013-03-18 14:26:00,54.2,50.0,29.71,South,185,3.3,6.9,86,0.05,,,0.14,WUHU216HW,2013-03-18 18:26:00,
2013-03-18 14:28:00,54.4,50.2,29.71,SSW,203,3.4,6.9,86,0.05,,,0.14,WUHU216HW,2013-03-18 18:28:00,
2013-03-18 14:29:00,54.4,50.2,29.71,SSE,158,5.1,5.4,86,0.05,,,0.14,WUHU216HW,2013-03-18 18:29:00,
2013-03-18 14:30:00,54.4,50.2,29.71,SSE,168,4.9,5.4,86,0.05,,,0.14,WUHU216HW,2013-03-18 18:30:00,
2013-03-18 14:32:00,54.4,50.2,29.71,SSE,158,3.6,5.4,86,0.04,,,0.14,WUHU216HW,2013-03-18 18:32:00,
2013-03-18 14:33:00,54.4,50.2,29.71,South,181,2.6,5.4,86,0.04,,,0.14,WUHU216HW,2013-03-18 18:33:00,
2013-03-18 14:34:00,54.4,50.2,29.71,SSE,158,9.2,9.2,86,0.04,,,0.14,WUHU216HW,2013-03-18 18:34:00,
2013-03-18 14:37:00,54.2,50.0,29.71,ESE,113,3.4,9.2,86,0.04,,,0.14,WUHU216HW,2013-03-18 18:37:00,
2013-03-18 14:39:00,54.0,49.9,29.70,SSE,168,5.4,9.2,86,0.06,,,0.16,WUHU216HW,2013-03-18 18:39:00,
2013-03-18 14:40:00,54.0,49.9,29.70,South,187,3.9,9.2,86,0.06,,,0.16,WUHU216HW,2013-03-18 18:40:00,
2013-03-18 14:42:00,53.8,49.7,29.70,SSW,203,4.9,9.2,86,0.06,,,0.16,WUHU216HW,2013-03-18 18:42:00,
2013-03-18 14:43:00,54.0,49.9,29.70,SE,135,6.9,9.2,86,0.06,,,0.16,WUHU216HW,2013-03-18 18:43:00,
2013-03-18 14:44:00,53.8,49.7,29.70,SSE,151,4.7,6.9,86,0.06,,,0.16,WUHU216HW,2013-03-18 18:44:00,
2013-03-18 14:46:00,53.6,49.5,29.71,SE,135,4.7,6.9,86,0.06,,,0.16,WUHU216HW,2013-03-18 18:46:00,
2013-03-18 14:47:00,53.6,49.5,29.70,SSE,158,6.5,6.9,86,0.06,,,0.16,WUHU216HW,2013-03-18 18:47:00,
2013-03-18 14:48:00,53.6,49.5,29.70,SE,135,6.9,6.9,86,0.06,,,0.16,WUHU216HW,2013-03-18 18:48:00,
2013-03-18 14:51:00,53.6,49.5,29.71,South,180,5.8,6.9,86,0.06,,,0.16,WUHU216HW,2013-03-18 18:51:00,
2013-03-18 14:53:00,53.6,49.5,29.70,SSE,158,5.4,6.9,86,0.06,,,0.16,WUHU216HW,2013-03-18 18:53:00,
2013-03-18 14:54:00,53.6,49.5,29.69,SSE,158,6.3,6.9,86,0.06,,,0.16,WUHU216HW,2013-03-18 18:54:00,
2013-03-18 14:56:00,53.5,49.7,29.70,ESE,118,6.6,7.6,87,0.09,,,0.19,WUHU216HW,2013-03-18 18:56:00,
2013-03-18 14:57:00,53.5,49.7,29.70,ESE,118,6.6,7.6,87,0.09,,,0.19,WUHU216HW,2013-03-18 18:57:00,
2013-03-18 14:59:00,53.5,49.7,29.70,SSW,209,5.6,7.6,87,0.11,,,0.21,WUHU216HW,2013-03-18 18:59:00,
2013-03-18 15:00:00,53.5,49.7,29.70,SSW,212,6.0,7.6,87,0.11,,,0.21,WUHU216HW,2013-03-18 19:00:00,
2013-03-18 15:02:00,53.6,49.9,29.71,SSE,158,2.7,7.6,87,0.11,,,0.21,WUHU216HW,2013-03-18 19:02:00,
2013-03-18 15:03:00,53.5,49.7,29.71,South,180,8.9,8.9,87,0.11,,,0.21,WUHU216HW,2013-03-18 19:03:00,
2013-03-18 15:05:00,53.5,49.7,29.71,South,180,7.2,8.9,87,0.11,,,0.21,WUHU216HW,2013-03-18 19:05:00,
2013-03-18 15:07:00,53.5,49.7,29.71,SSE,158,6.3,8.9,87,0.11,,,0.21,WUHU216HW,2013-03-18 19:07:00,
2013-03-18 15:09:00,53.5,49.7,29.71,SW,225,6.9,8.9,87,0.12,,,0.22,WUHU216HW,2013-03-18 19:09:00,
2013-03-18 15:10:00,53.3,49.5,29.71,SSW,199,5.2,8.9,87,0.12,,,0.22,WUHU216HW,2013-03-18 19:10:00,
2013-03-18 15:13:00,53.3,49.5,29.70,SE,142,4.9,7.2,87,0.12,,,0.22,WUHU216HW,2013-03-18 19:13:00,
2013-03-18 15:14:00,53.3,49.5,29.70,SSE,158,3.8,6.9,87,0.13,,,0.23,WUHU216HW,2013-03-18 19:14:00,
2013-03-18 15:15:00,53.3,49.5,29.70,SE,135,6.0,6.9,87,0.12,,,0.23,WUHU216HW,2013-03-18 19:15:00,
2013-03-18 15:17:00,53.5,50.0,29.70,SE,135,9.8,9.8,88,0.09,,,0.23,WUHU216HW,2013-03-18 19:17:00,
2013-03-18 15:18:00,53.6,50.1,29.69,ESE,113,8.5,9.8,88,0.09,,,0.23,WUHU216HW,2013-03-18 19:18:00,
2013-03-18 15:20:00,53.6,50.1,29.69,SE,130,5.9,9.8,88,0.09,,,0.23,WUHU216HW,2013-03-18 19:20:00,
2013-03-18 15:21:00,53.8,50.3,29.69,SSE,158,3.8,9.8,88,0.09,,,0.23,WUHU216HW,2013-03-18 19:21:00,
2013-03-18 15:22:00,53.8,50.3,29.69,SSE,158,3.8,9.8,88,0.09,,,0.23,WUHU216HW,2013-03-18 19:22:00,
2013-03-18 15:24:00,54.0,50.5,29.69,SSE,158,7.6,9.8,88,0.09,,,0.23,WUHU216HW,2013-03-18 19:24:00,
2013-03-18 15:25:00,54.2,50.7,29.69,South,180,8.5,9.8,88,0.09,,,0.23,WUHU216HW,2013-03-18 19:25:00,
2013-03-18 15:26:00,54.2,50.7,29.70,SSE,163,6.9,9.8,88,0.09,,,0.23,WUHU216HW,2013-03-18 19:26:00,
2013-03-18 15:28:00,54.2,50.7,29.69,SE,125,4.9,9.4,88,0.09,,,0.23,WUHU216HW,2013-03-18 19:28:00,
2013-03-18 15:29:00,54.4,50.9,29.69,SSE,164,4.3,9.4,88,0.09,,,0.23,WUHU216HW,2013-03-18 19:29:00,
2013-03-18 15:30:00,54.2,50.4,29.69,SE,135,7.8,9.4,87,0.09,,,0.23,WUHU216HW,2013-03-18 19:30:00,
2013-03-18 15:31:00,54.2,50.4,29.69,SE,135,7.8,9.4,87,0.09,,,0.23,WUHU216HW,2013-03-18 19:31:00,
2013-03-18 15:33:00,54.2,50.7,29.69,SE,135,6.3,9.4,88,0.09,,,0.23,WUHU216HW,2013-03-18 19:33:00,
2013-03-18 15:34:00,54.0,50.2,29.68,SE,135,8.1,9.4,87,0.09,,,0.23,WUHU216HW,2013-03-18 19:34:00,
2013-03-18 15:36:00,54.2,50.7,29.68,SE,135,8.0,9.4,88,0.09,,,0.23,WUHU216HW,2013-03-18 19:36:00,
2013-03-18 15:37:00,54.2,50.7,29.68,SE,135,6.9,8.1,88,0.07,,,0.23,WUHU216HW,2013-03-18 19:37:00,
2013-03-18 15:39:00,54.2,50.7,29.69,SSE,158,7.2,8.1,88,0.07,,,0.23,WUHU216HW,2013-03-18 19:39:00,
2013-03-18 15:40:00,54.2,50.7,29.69,ESE,119,6.5,8.1,88,0.07,,,0.23,WUHU216HW,2013-03-18 19:40:00,
2013-03-18 15:42:00,54.4,50.9,29.68,SSE,158,6.9,8.1,88,0.07,,,0.23,WUHU216HW,2013-03-18 19:42:00,
2013-03-18 15:44:00,54.4,50.9,29.68,SSE,158,9.2,9.2,88,0.07,,,0.23,WUHU216HW,2013-03-18 19:44:00,
2013-03-18 15:45:00,54.4,50.9,29.68,SE,135,7.1,9.2,88,0.09,,,0.25,WUHU216HW,2013-03-18 19:45:00,
2013-03-18 15:47:00,54.7,51.2,29.68,SE,135,6.7,9.2,88,0.09,,,0.25,WUHU216HW,2013-03-18 19:47:00,
2013-03-18 15:49:00,54.7,50.9,29.68,SE,135,3.4,9.2,87,0.09,,,0.25,WUHU216HW,2013-03-18 19:49:00,
2013-03-18 15:50:00,54.7,50.9,29.68,SSE,158,4.5,9.2,87,0.09,,,0.25,WUHU216HW,2013-03-18 19:50:00,
2013-03-18 15:52:00,54.9,51.0,29.67,SE,135,6.9,9.2,87,0.09,,,0.25,WUHU216HW,2013-03-18 19:52:00,
2013-03-18 15:53:00,54.9,51.0,29.68,SSE,153,5.9,9.2,87,0.09,,,0.25,WUHU216HW,2013-03-18 19:53:00,
2013-03-18 15:55:00,55.1,51.2,29.68,SSE,158,5.1,6.9,87,0.06,,,0.25,WUHU216HW,2013-03-18 19:55:00,
2013-03-18 15:57:00,55.1,51.2,29.68,SSE,158,5.4,6.9,87,0.04,,,0.25,WUHU216HW,2013-03-18 19:57:00,
2013-03-18 15:58:00,55.1,51.2,29.68,SSE,158,5.6,6.9,87,0.04,,,0.25,WUHU216HW,2013-03-18 19:58:00,
2013-03-18 16:00:00,55.4,51.6,29.68,SSE,158,5.5,6.9,87,0.04,,,0.25,WUHU216HW,2013-03-18 20:00:00,
2013-03-18 16:02:00,55.4,51.6,29.68,SE,135,5.1,6.3,87,0.04,,,0.25,WUHU216HW,2013-03-18 20:02:00,
2013-03-18 16:03:00,55.4,51.6,29.68,SE,144,4.3,6.3,87,0.04,,,0.25,WUHU216HW,2013-03-18 20:03:00,
2013-03-18 16:04:00,55.4,51.6,29.68,SSE,147,3.5,6.3,87,0.04,,,0.25,WUHU216HW,2013-03-18 20:04:00,
2013-03-18 16:06:00,55.4,51.6,29.69,ESE,114,3.2,6.3,87,0.03,,,0.25,WUHU216HW,2013-03-18 20:06:00,
2013-03-18 16:08:00,55.4,51.3,29.69,SE,130,3.9,6.3,86,0.03,,,0.25,WUHU216HW,2013-03-18 20:08:00,
2013-03-18 16:09:00,55.3,51.1,29.69,SSE,147,2.8,6.3,86,0.03,,,0.25,WUHU216HW,2013-03-18 20:09:00,
2013-03-18 16:11:00,55.1,51.0,29.69,SE,135,2.0,5.1,86,0.03,,,0.25,WUHU216HW,2013-03-18 20:11:00,
2013-03-18 16:13:00,54.9,50.8,29.69,SE,135,5.1,5.1,86,0.02,,,0.25,WUHU216HW,2013-03-18 20:13:00,
2013-03-18 16:14:00,54.9,50.8,29.69,SE,135,5.1,5.1,86,0.02,,,0.25,WUHU216HW,2013-03-18 20:14:00,
2013-03-18 16:15:00,54.9,50.8,29.69,SE,125,4.4,5.1,86,0.02,,,0.25,WUHU216HW,2013-03-18 20:15:00,
2013-03-18 16:16:00,54.7,50.6,29.69,ESE,113,6.0,6.0,86,0.02,,,0.25,WUHU216HW,2013-03-18 20:16:00,
2013-03-18 16:19:00,54.5,50.4,29.69,SE,135,4.6,6.0,86,0.02,,,0.25,WUHU216HW,2013-03-18 20:19:00,
2013-03-18 16:20:00,54.5,50.8,29.69,SE,144,3.8,6.0,87,0.02,,,0.25,WUHU216HW,2013-03-18 20:20:00,
2013-03-18 16:22:00,54.4,50.6,29.69,ESE,103,2.2,6.0,87,0.02,,,0.25,WUHU216HW,2013-03-18 20:22:00,
2013-03-18 16:25:00,54.4,50.6,29.69,SSE,149,3.0,6.0,87,0.02,,,0.25,WUHU216HW,2013-03-18 20:25:00,
2013-03-18 16:26:00,54.4,50.6,29.69,SE,135,4.0,4.7,87,0.02,,,0.25,WUHU216HW,2013-03-18 20:26:00,
2013-03-18 16:27:00,54.4,50.6,29.69,SE,135,5.8,5.8,87,0.02,,,0.25,WUHU216HW,2013-03-18 20:27:00,
2013-03-18 16:31:00,54.5,50.8,29.69,ESE,113,4.0,5.8,87,0.02,,,0.25,WUHU216HW,2013-03-18 20:31:00,
2013-03-18 16:32:00,54.7,50.9,29.69,ESE,113,4.7,5.8,87,0.02,,,0.25,WUHU216HW,2013-03-18 20:32:00,
2013-03-18 16:34:00,54.7,50.9,29.69,SE,135,5.4,5.8,87,0.02,,,0.25,WUHU216HW,2013-03-18 20:34:00,
2013-03-18 16:37:00,54.7,50.9,29.70,SSW,196,0.8,5.4,87,0.02,,,0.25,WUHU216HW,2013-03-18 20:37:00,
2013-03-18 16:38:00,54.5,50.8,29.70,NE,45,1.8,5.4,87,0.02,,,0.25,WUHU216HW,2013-03-18 20:38:00,
2013-03-18 16:39:00,54.5,50.4,29.71,North,0,2.0,5.4,86,0.02,,,0.25,WUHU216HW,2013-03-18 20:39:00,
2013-03-18 16:41:00,54.4,50.2,29.71,North,0,3.1,5.4,86,0.02,,,0.25,WUHU216HW,2013-03-18 20:41:00,
2013-03-18 16:43:00,54.2,50.7,29.72,NW,306,3.7,5.4,88,0.00,,,0.25,WUHU216HW,2013-03-18 20:43:00,
2013-03-18 16:44:00,54.0,50.5,29.72,NNW,338,3.4,4.5,88,0.00,,,0.25,WUHU216HW,2013-03-18 20:44:00,
2013-03-18 16:45:00,54.0,50.5,29.72,NNW,338,11.2,11.2,88,0.00,,,0.25,WUHU216HW,2013-03-18 20:45:00,
2013-03-18 16:48:00,53.6,50.1,29.73,North,0,5.1,11.2,88,0.00,,,0.25,WUHU216HW,2013-03-18 20:48:00,
2013-03-18 16:49:00,53.5,50.0,29.72,NNW,338,8.9,11.2,88,0.00,,,0.25,WUHU216HW,2013-03-18 20:49:00,
2013-03-18 16:51:00,53.3,50.1,29.72,NNE,23,4.7,11.2,89,0.00,,,0.25,WUHU216HW,2013-03-18 20:51:00,
2013-03-18 16:53:00,53.3,50.1,29.71,North,0,4.5,11.2,89,0.00,,,0.25,WUHU216HW,2013-03-18 20:53:00,
2013-03-18 16:54:00,53.3,50.1,29.71,NE,35,3.8,11.2,89,0.00,,,0.25,WUHU216HW,2013-03-18 20:54:00,
2013-03-18 16:56:00,53.5,50.3,29.71,ESE,113,5.1,8.9,89,0.00,,,0.25,WUHU216HW,2013-03-18 20:56:00,
2013-03-18 16:58:00,53.5,50.3,29.71,East,90,4.5,8.9,89,0.00,,,0.25,WUHU216HW,2013-03-18 20:58:00,
2013-03-18 16:59:00,53.5,50.3,29.71,East,90,4.5,8.9,89,0.00,,,0.25,WUHU216HW,2013-03-18 20:59:00,
2013-03-18 17:02:00,53.6,50.5,29.71,ENE,68,3.8,5.4,89,0.00,,,0.25,WUHU216HW,2013-03-18 21:02:00,
2013-03-18 17:03:00,53.6,50.5,29.70,ESE,113,5.6,5.6,89,0.00,,,0.25,WUHU216HW,2013-03-18 21:03:00,
2013-03-18 17:04:00,53.6,50.5,29.70,SE,124,7.7,7.8,89,0.00,,,0.25,WUHU216HW,2013-03-18 21:04:00,
2013-03-18 17:06:00,53.6,50.5,29.70,ESE,121,4.7,7.8,89,0.00,,,0.25,WUHU216HW,2013-03-18 21:06:00,
2013-03-18 17:07:00,53.6,50.5,29.70,ENE,68,4.3,7.8,89,0.00,,,0.25,WUHU216HW,2013-03-18 21:07:00,
2013-03-18 17:08:00,53.8,50.7,29.71,SE,135,4.7,7.8,89,0.00,,,0.25,WUHU216HW,2013-03-18 21:08:00,
2013-03-18 17:10:00,53.8,50.7,29.71,ESE,114,4.5,7.8,89,0.00,,,0.25,WUHU216HW,2013-03-18 21:10:00,
2013-03-18 17:11:00,53.8,50.7,29.71,NNE,23,2.2,7.8,89,0.00,,,0.25,WUHU216HW,2013-03-18 21:11:00,
2013-03-18 17:12:00,53.8,50.7,29.71,NNE,23,2.2,7.8,89,0.00,,,0.25,WUHU216HW,2013-03-18 21:12:00,
2013-03-18 17:14:00,53.8,50.7,29.70,ENE,68,5.8,7.6,89,0.00,,,0.25,WUHU216HW,2013-03-18 21:14:00,
2013-03-18 17:15:00,53.6,50.5,29.69,ESE,113,6.3,6.3,89,0.00,,,0.25,WUHU216HW,2013-03-18 21:15:00,
2013-03-18 17:17:00,53.5,50.0,29.69,ESE,123,5.9,6.3,88,0.00,,,0.25,WUHU216HW,2013-03-18 21:17:00,
2013-03-18 17:18:00,53.5,50.0,29.69,East,90,6.5,6.5,88,0.00,,,0.25,WUHU216HW,2013-03-18 21:18:00,
2013-03-18 17:20:00,53.5,50.0,29.70,ESE,113,4.7,6.5,88,0.00,,,0.25,WUHU216HW,2013-03-18 21:20:00,
2013-03-18 17:21:00,53.5,50.0,29.69,ESE,113,8.3,8.3,88,0.00,,,0.25,WUHU216HW,2013-03-18 21:21:00,
2013-03-18 17:22:00,53.3,49.8,29.69,ESE,113,7.9,8.3,88,0.00,,,0.25,WUHU216HW,2013-03-18 21:22:00,
2013-03-18 17:23:00,53.3,49.8,29.69,ESE,121,6.1,8.3,88,0.00,,,0.25,WUHU216HW,2013-03-18 21:23:00,
2013-03-18 17:25:00,52.9,49.4,29.69,SE,129,5.7,8.3,88,0.00,,,0.25,WUHU216HW,2013-03-18 21:25:00,
2013-03-18 17:27:00,52.9,49.4,29.69,ESE,113,5.4,8.3,88,0.00,,,0.25,WUHU216HW,2013-03-18 21:27:00,
2013-03-18 17:28:00,52.9,49.4,29.69,East,90,5.6,8.3,88,0.00,,,0.25,WUHU216HW,2013-03-18 21:28:00,
2013-03-18 17:31:00,52.9,49.4,29.70,SSE,158,4.5,7.6,88,0.00,,,0.25,WUHU216HW,2013-03-18 21:31:00,
2013-03-18 17:32:00,52.9,49.4,29.69,SE,140,3.2,6.5,88,0.00,,,0.25,WUHU216HW,2013-03-18 21:32:00,
2013-03-18 17:35:00,52.9,49.8,29.69,North,0,2.5,5.6,89,0.01,,,0.26,WUHU216HW,2013-03-18 21:35:00,
2013-03-18 17:36:00,52.9,49.8,29.70,NNE,23,4.0,5.6,89,0.01,,,0.26,WUHU216HW,2013-03-18 21:36:00,
2013-03-18 17:37:00,52.7,49.6,29.70,NNE,13,3.5,5.6,89,0.01,,,0.26,WUHU216HW,2013-03-18 21:37:00,
2013-03-18 17:40:00,52.7,49.6,29.71,NE,46,1.3,4.5,89,0.03,,,0.28,WUHU216HW,2013-03-18 21:40:00,
2013-03-18 17:42:00,52.7,49.6,29.72,WNW,293,4.0,4.3,89,0.04,,,0.29,WUHU216HW,2013-03-18 21:42:00,
2013-03-18 17:43:00,52.7,49.6,29.74,NW,306,2.0,4.3,89,0.05,,,0.30,WUHU216HW,2013-03-18 21:43:00,
2013-03-18 17:44:00,52.7,49.6,29.75,West,270,3.4,4.3,89,0.07,,,0.32,WUHU216HW,2013-03-18 21:44:00,
2013-03-18 17:46:00,52.7,49.6,29.76,NW,313,2.3,4.3,89,0.10,,,0.35,WUHU216HW,2013-03-18 21:46:00,
2013-03-18 17:48:00,52.6,49.4,29.76,NW,323,1.7,4.3,89,0.15,,,0.40,WUHU216HW,2013-03-18 21:48:00,
2013-03-18 17:49:00,52.6,49.4,29.76,SW,225,1.6,4.0,89,0.24,,,0.49,WUHU216HW,2013-03-18 21:49:00,
2013-03-18 17:52:00,52.4,49.2,29.77,SSW,203,0.9,3.4,89,0.34,,,0.59,WUHU216HW,2013-03-18 21:52:00,
2013-03-18 17:53:00,52.4,49.2,29.77,SSE,158,1.6,3.4,89,0.36,,,0.61,WUHU216HW,2013-03-18 21:53:00,
2013-03-18 17:54:00,52.4,49.2,29.77,SSE,158,1.6,2.5,89,0.36,,,0.61,WUHU216HW,2013-03-18 21:54:00,
2013-03-18 17:55:00,52.4,49.2,29.77,SSW,203,2.0,2.2,89,0.38,,,0.63,WUHU216HW,2013-03-18 21:55:00,
2013-03-18 17:57:00,52.4,49.2,29.77,WSW,248,1.8,2.0,89,0.43,,,0.68,WUHU216HW,2013-03-18 21:57:00,
2013-03-18 17:59:00,52.4,49.2,29.77,SW,225,4.7,4.7,89,0.45,,,0.70,WUHU216HW,2013-03-18 21:59:00,
2013-03-18 18:00:00,52.4,49.2,29.77,SW,225,1.3,4.7,89,0.47,,,0.72,WUHU216HW,2013-03-18 22:00:00,
2013-03-18 18:03:00,52.6,49.7,29.77,West,270,0.8,4.7,90,0.48,,,0.73,WUHU216HW,2013-03-18 22:03:00,
2013-03-18 18:04:00,52.6,49.7,29.78,West,270,1.8,4.7,90,0.48,,,0.73,WUHU216HW,2013-03-18 22:04:00,
2013-03-18 18:05:00,52.6,49.7,29.78,WNW,283,1.1,4.7,90,0.49,,,0.74,WUHU216HW,2013-03-18 22:05:00,
2013-03-18 18:07:00,52.7,49.9,29.78,SW,220,0.8,4.7,90,0.50,,,0.75,WUHU216HW,2013-03-18 22:07:00,
2013-03-18 18:09:00,52.9,50.0,29.78,WSW,248,1.8,1.8,90,0.52,,,0.77,WUHU216HW,2013-03-18 22:09:00,
2013-03-18 18:10:00,52.9,50.0,29.77,SSW,203,2.5,2.5,90,0.52,,,0.77,WUHU216HW,2013-03-18 22:10:00,
2013-03-18 18:12:00,53.1,50.2,29.77,SW,217,1.6,2.5,90,0.54,,,0.79,WUHU216HW,2013-03-18 22:12:00,
2013-03-18 18:14:00,53.1,50.2,29.77,North,0,1.1,2.5,90,0.54,,,0.79,WUHU216HW,2013-03-18 22:14:00,
2013-03-18 18:15:00,53.3,50.4,29.77,SW,225,6.3,6.3,90,0.54,,,0.79,WUHU216HW,2013-03-18 22:15:00,
2013-03-18 18:16:00,53.3,50.4,29.77,SW,225,6.3,6.3,90,0.54,,,0.79,WUHU216HW,2013-03-18 22:16:00,
2013-03-18 18:18:00,53.5,50.9,29.76,SSE,158,1.8,6.3,91,0.56,,,0.81,WUHU216HW,2013-03-18 22:18:00,
2013-03-18 18:19:00,53.5,50.9,29.76,SSE,158,1.8,6.3,91,0.56,,,0.81,WUHU216HW,2013-03-18 22:19:00,
2013-03-18 18:20:00,53.6,51.0,29.76,SE,135,1.6,6.3,91,0.56,,,0.81,WUHU216HW,2013-03-18 22:20:00,
2013-03-18 18:22:00,53.6,51.0,29.74,SE,135,2.5,6.3,91,0.58,,,0.83,WUHU216HW,2013-03-18 22:22:00,
2013-03-18 18:24:00,53.6,51.0,29.70,ESE,113,6.3,6.3,91,0.59,,,0.84,WUHU216HW,2013-03-18 22:24:00,
2013-03-18 18:26:00,53.8,51.2,29.68,East,99,4.9,6.3,91,0.59,,,0.84,WUHU216HW,2013-03-18 22:26:00,
2013-03-18 18:28:00,53.8,51.2,29.68,SE,140,3.5,6.3,91,0.59,,,0.84,WUHU216HW,2013-03-18 22:28:00,
2013-03-18 18:29:00,53.6,51.0,29.68,ESE,113,5.8,6.3,91,0.59,,,0.84,WUHU216HW,2013-03-18 22:29:00,
2013-03-18 18:30:00,53.6,51.0,29.67,ESE,102,5.4,6.3,91,0.59,,,0.84,WUHU216HW,2013-03-18 22:30:00,
2013-03-18 18:33:00,53.6,51.0,29.66,SE,135,1.8,6.3,91,0.58,,,0.84,WUHU216HW,2013-03-18 22:33:00,
2013-03-18 18:34:00,53.6,51.0,29.66,SE,131,4.2,5.8,91,0.58,,,0.84,WUHU216HW,2013-03-18 22:34:00,
2013-03-18 18:36:00,53.6,51.0,29.66,SSE,151,2.3,5.8,91,0.58,,,0.84,WUHU216HW,2013-03-18 22:36:00,
2013-03-18 18:38:00,53.6,51.0,29.66,SSE,159,3.3,5.8,91,0.56,,,0.84,WUHU216HW,2013-03-18 22:38:00,
2013-03-18 18:39:00,53.6,51.0,29.66,SSE,162,2.3,5.1,91,0.55,,,0.84,WUHU216HW,2013-03-18 22:39:00,
2013-03-18 18:40:00,53.6,51.0,29.66,SSE,162,2.3,5.1,91,0.55,,,0.84,WUHU216HW,2013-03-18 22:40:00,
2013-03-18 18:42:00,53.6,51.0,29.66,SW,225,0.4,4.9,91,0.52,,,0.84,WUHU216HW,2013-03-18 22:42:00,
2013-03-18 18:44:00,53.6,51.0,29.66,SSW,198,0.3,3.4,91,0.51,,,0.84,WUHU216HW,2013-03-18 22:44:00,
2013-03-18 18:45:00,53.6,51.0,29.66,ESE,113,3.4,3.4,91,0.49,,,0.84,WUHU216HW,2013-03-18 22:45:00,
2013-03-18 18:48:00,53.6,51.0,29.66,South,180,1.6,3.4,91,0.31,,,0.84,WUHU216HW,2013-03-18 22:48:00,
2013-03-18 18:50:00,53.6,51.0,29.66,SW,225,1.6,3.4,91,0.28,,,0.84,WUHU216HW,2013-03-18 22:50:00,
2013-03-18 18:51:00,53.6,51.0,29.66,WSW,248,2.9,3.4,91,0.25,,,0.84,WUHU216HW,2013-03-18 22:51:00,
2013-03-18 18:53:00,53.6,51.0,29.66,SSW,203,2.0,3.4,91,0.20,,,0.84,WUHU216HW,2013-03-18 22:53:00,
2013-03-18 18:55:00,53.6,51.0,29.66,WSW,238,0.8,2.9,91,0.16,,,0.84,WUHU216HW,2013-03-18 22:55:00,
2013-03-18 18:56:00,53.6,51.0,29.66,South,180,1.1,2.9,91,0.14,,,0.84,WUHU216HW,2013-03-18 22:56:00,
2013-03-18 18:58:00,53.6,51.0,29.66,SSW,200,1.5,2.9,91,0.12,,,0.84,WUHU216HW,2013-03-18 22:58:00,
2013-03-18 19:02:00,53.8,51.2,29.66,SSW,203,2.7,2.7,91,0.11,,,0.84,WUHU216HW,2013-03-18 23:02:00,
2013-03-18 19:04:00,53.8,51.2,29.66,South,180,1.1,2.7,91,0.10,,,0.84,WUHU216HW,2013-03-18 23:04:00,
2013-03-18 19:07:00,53.8,51.2,29.66,SSE,158,1.1,2.7,91,0.07,,,0.84,WUHU216HW,2013-03-18 23:07:00,
2013-03-18 19:09:00,53.8,51.2,29.66,ESE,113,1.8,2.7,91,0.07,,,0.84,WUHU216HW,2013-03-18 23:09:00,
2013-03-18 19:10:00,53.8,51.2,29.66,SSE,149,1.5,2.7,91,0.05,,,0.84,WUHU216HW,2013-03-18 23:10:00,
2013-03-18 19:12:00,54.0,51.1,29.66,ESE,113,2.0,2.0,90,0.05,,,0.84,WUHU216HW,2013-03-18 23:12:00,
2013-03-18 19:13:00,54.0,51.1,29.66,ESE,113,2.0,2.0,90,0.05,,,0.84,WUHU216HW,2013-03-18 23:13:00,
2013-03-18 19:15:00,54.0,51.1,29.66,SE,135,3.6,3.6,90,0.03,,,0.84,WUHU216HW,2013-03-18 23:15:00,
2013-03-18 19:17:00,53.8,50.9,29.65,SE,135,2.7,3.6,90,0.03,,,0.84,WUHU216HW,2013-03-18 23:17:00,
2013-03-18 19:18:00,53.8,50.9,29.65,SE,135,2.7,3.6,90,0.03,,,0.84,WUHU216HW,2013-03-18 23:18:00,
2013-03-18 19:19:00,53.8,50.9,29.65,SE,135,2.5,3.6,90,0.03,,,0.84,WUHU216HW,2013-03-18 23:19:00,
2013-03-18 19:21:00,53.8,50.9,29.65,ESE,113,1.3,3.6,90,0.01,,,0.84,WUHU216HW,2013-03-18 23:21:00,
2013-03-18 19:22:00,53.8,50.9,29.65,ESE,113,1.0,3.6,90,0.00,,,0.84,WUHU216HW,2013-03-18 23:22:00,
2013-03-18 19:24:00,53.6,50.8,29.65,SSE,158,2.0,3.6,90,0.00,,,0.84,WUHU216HW,2013-03-18 23:24:00,
2013-03-18 19:27:00,53.6,50.8,29.66,SW,232,1.7,2.2,90,0.00,,,0.84,WUHU216HW,2013-03-18 23:27:00,
2013-03-18 19:28:00,53.6,50.8,29.66,South,180,2.0,2.2,90,0.00,,,0.84,WUHU216HW,2013-03-18 23:28:00,
2013-03-18 19:29:00,53.6,50.8,29.66,South,180,2.0,2.2,90,0.00,,,0.84,WUHU216HW,2013-03-18 23:29:00,
2013-03-18 19:33:00,53.5,50.6,29.66,SSW,206,0.6,2.2,90,0.00,,,0.84,WUHU216HW,2013-03-18 23:33:00,
2013-03-18 19:34:00,53.5,50.6,29.66,SSE,158,1.8,2.2,90,0.00,,,0.84,WUHU216HW,2013-03-18 23:34:00,
2013-03-18 19:35:00,53.5,50.6,29.66,SSE,158,1.5,2.2,90,0.00,,,0.84,WUHU216HW,2013-03-18 23:35:00,
2013-03-18 19:38:00,53.3,50.4,29.66,SSW,203,1.1,2.0,90,0.00,,,0.84,WUHU216HW,2013-03-18 23:38:00,
2013-03-18 19:39:00,53.3,50.4,29.66,SSW,197,0.8,1.8,90,0.00,,,0.84,WUHU216HW,2013-03-18 23:39:00,
2013-03-18 19:40:00,53.3,50.4,29.66,SSE,158,0.7,1.8,90,0.00,,,0.84,WUHU216HW,2013-03-18 23:40:00,
2013-03-18 19:43:00,53.1,50.2,29.66,SE,135,0.4,1.8,90,0.00,,,0.84,WUHU216HW,2013-03-18 23:43:00,
2013-03-18 19:44:00,52.9,50.0,29.66,East,90,0.0,1.8,90,0.00,,,0.84,WUHU216HW,2013-03-18 23:44:00,
2013-03-18 19:45:00,52.9,50.0,29.66,ENE,68,0.0,1.8,90,0.00,,,0.84,WUHU216HW,2013-03-18 23:45:00,
2013-03-18 19:48:00,52.9,50.0,29.66,NNE,23,0.0,1.1,90,0.00,,,0.84,WUHU216HW,2013-03-18 23:48:00,
2013-03-18 19:51:00,52.7,49.9,29.66,NNE,23,0.4,0.4,90,0.00,,,0.84,WUHU216HW,2013-03-18 23:51:00,
2013-03-18 19:52:00,52.7,49.9,29.66,NNE,23,0.4,0.4,90,0.00,,,0.84,WUHU216HW,2013-03-18 23:52:00,
2013-03-18 19:53:00,52.7,49.9,29.66,East,90,1.6,1.6,90,0.00,,,0.84,WUHU216HW,2013-03-18 23:53:00,
2013-03-18 19:56:00,52.6,50.0,29.66,East,90,1.5,1.8,91,0.00,,,0.84,WUHU216HW,2013-03-18 23:56:00,
2013-03-18 19:57:00,52.6,49.7,29.66,East,90,0.9,1.8,90,0.00,,,0.84,WUHU216HW,2013-03-18 23:57:00,
2013-03-18 19:59:00,52.4,49.5,29.66,East,90,0.9,1.8,90,0.00,,,0.84,WUHU216HW,2013-03-18 23:59:00,
2013-03-18 20:01:00,52.4,49.5,29.66,East,90,0.4,1.8,90,0.00,,,0.84,WUHU216HW,2013-03-19 00:01:00,
2013-03-18 20:03:00,52.2,49.3,29.66,East,90,0.4,1.8,90,0.00,,,0.84,WUHU216HW,2013-03-19 00:03:00,
2013-03-18 20:04:00,52.2,49.3,29.66,East,90,0.0,1.1,90,0.00,,,0.84,WUHU216HW,2013-03-19 00:04:00,
2013-03-18 20:07:00,52.0,49.1,29.66,ESE,113,0.0,0.9,90,0.00,,,0.84,WUHU216HW,2013-03-19 00:07:00,
2013-03-18 20:08:00,52.0,49.1,29.66,ESE,113,0.0,0.9,90,0.00,,,0.84,WUHU216HW,2013-03-19 00:08:00,
2013-03-18 20:10:00,51.8,49.0,29.66,ESE,113,0.4,0.4,90,0.00,,,0.84,WUHU216HW,2013-03-19 00:10:00,
2013-03-18 20:12:00,51.8,48.7,29.67,South,180,1.3,1.3,89,0.00,,,0.84,WUHU216HW,2013-03-19 00:12:00,
2013-03-18 20:13:00,51.8,48.7,29.67,South,180,1.3,1.3,89,0.00,,,0.84,WUHU216HW,2013-03-19 00:13:00,
2013-03-18 20:15:00,51.7,48.5,29.67,SW,225,0.4,1.3,89,0.00,,,0.84,WUHU216HW,2013-03-19 00:15:00,
2013-03-18 20:18:00,51.5,48.3,29.68,SW,225,0.4,1.3,89,0.00,,,0.84,WUHU216HW,2013-03-19 00:18:00,
2013-03-18 20:19:00,51.5,48.3,29.67,South,180,0.0,1.3,89,0.00,,,0.84,WUHU216HW,2013-03-19 00:19:00,
2013-03-18 20:21:00,51.5,48.3,29.67,SE,135,0.0,1.3,89,0.00,,,0.84,WUHU216HW,2013-03-19 00:21:00,
2013-03-18 20:23:00,51.5,48.6,29.68,SE,135,1.1,1.1,90,0.00,,,0.84,WUHU216HW,2013-03-19 00:23:00,
2013-03-18 20:24:00,51.5,48.3,29.68,SE,135,0.6,1.1,89,0.00,,,0.84,WUHU216HW,2013-03-19 00:24:00,
2013-03-18 20:25:00,51.5,48.3,29.68,SE,135,0.6,1.1,89,0.00,,,0.84,WUHU216HW,2013-03-19 00:25:00,
2013-03-18 20:26:00,51.3,48.2,29.68,SE,135,0.7,1.1,89,0.00,,,0.84,WUHU216HW,2013-03-19 00:26:00,
2013-03-18 20:29:00,51.1,48.0,29.67,WSW,248,0.8,1.1,89,0.00,,,0.84,WUHU216HW,2013-03-19 00:29:00,
2013-03-18 20:30:00,51.1,48.0,29.67,WSW,248,0.9,1.1,89,0.00,,,0.84,WUHU216HW,2013-03-19 00:30:00,
2013-03-18 20:33:00,51.1,48.0,29.68,SSE,158,0.7,1.3,89,0.00,,,0.84,WUHU216HW,2013-03-19 00:33:00,
2013-03-18 20:34:00,51.1,48.0,29.68,South,174,0.6,1.3,89,0.00,,,0.84,WUHU216HW,2013-03-19 00:34:00,
2013-03-18 20:35:00,50.9,47.8,29.68,SSW,203,0.4,1.3,89,0.00,,,0.84,WUHU216HW,2013-03-19 00:35:00,
2013-03-18 20:36:00,50.9,47.8,29.68,SSW,203,0.0,1.3,89,0.00,,,0.84,WUHU216HW,2013-03-19 00:36:00,
2013-03-18 20:38:00,50.8,47.9,29.68,SSW,192,1.0,1.3,90,0.00,,,0.84,WUHU216HW,2013-03-19 00:38:00,
2013-03-18 20:40:00,50.8,47.9,29.68,South,180,1.8,1.8,90,0.00,,,0.84,WUHU216HW,2013-03-19 00:40:00,
2013-03-18 20:41:00,50.8,47.9,29.68,SSE,158,2.5,2.5,90,0.00,,,0.84,WUHU216HW,2013-03-19 00:41:00,
2013-03-18 20:43:00,50.8,47.9,29.68,South,180,1.8,2.5,90,0.00,,,0.84,WUHU216HW,2013-03-19 00:43:00,
2013-03-18 20:45:00,50.8,47.9,29.68,SSE,159,1.7,2.5,90,0.00,,,0.84,WUHU216HW,2013-03-19 00:45:00,
2013-03-18 20:47:00,50.8,47.9,29.68,SSE,158,1.1,2.5,90,0.00,,,0.84,WUHU216HW,2013-03-19 00:47:00,
2013-03-18 20:49:00,50.8,47.9,29.68,SE,135,1.3,2.5,90,0.00,,,0.84,WUHU216HW,2013-03-19 00:49:00,
2013-03-18 20:50:00,50.8,47.9,29.68,SE,135,1.0,2.5,90,0.00,,,0.84,WUHU216HW,2013-03-19 00:50:00,
2013-03-18 20:51:00,50.8,47.9,29.68,ESE,113,0.6,1.8,90,0.00,,,0.84,WUHU216HW,2013-03-19 00:51:00,
2013-03-18 20:53:00,50.8,47.9,29.68,ESE,113,0.7,1.8,90,0.00,,,0.84,WUHU216HW,2013-03-19 00:53:00,
2013-03-18 20:55:00,50.8,47.9,29.68,ESE,113,0.0,1.3,90,0.00,,,0.84,WUHU216HW,2013-03-19 00:55:00,
2013-03-18 20:57:00,50.6,47.7,29.68,ESE,113,0.0,1.3,90,0.00,,,0.84,WUHU216HW,2013-03-19 00:57:00,
2013-03-18 20:59:00,50.6,47.7,29.68,ESE,113,0.0,0.7,90,0.00,,,0.84,WUHU216HW,2013-03-19 00:59:00,
2013-03-18 21:01:00,50.4,47.5,29.68,ESE,113,0.0,0.7,90,0.00,,,0.84,WUHU216HW,2013-03-19 01:01:00,
2013-03-18 21:02:00,50.4,47.5,29.68,ESE,113,0.0,0.7,90,0.00,,,0.84,WUHU216HW,2013-03-19 01:02:00,
2013-03-18 21:04:00,50.4,47.5,29.68,ESE,113,0.0,0.0,90,0.00,,,0.84,WUHU216HW,2013-03-19 01:04:00,
2013-03-18 21:07:00,50.4,47.5,29.68,ESE,113,0.0,0.0,90,0.00,,,0.84,WUHU216HW,2013-03-19 01:07:00,
2013-03-18 21:08:00,50.2,47.3,29.68,ESE,113,0.0,0.0,90,0.00,,,0.84,WUHU216HW,2013-03-19 01:08:00,
2013-03-18 21:09:00,50.4,47.5,29.68,ESE,113,0.9,0.9,90,0.00,,,0.84,WUHU216HW,2013-03-19 01:09:00,
2013-03-18 21:10:00,50.4,47.5,29.68,ESE,113,0.9,0.9,90,0.00,,,0.84,WUHU216HW,2013-03-19 01:10:00,
2013-03-18 21:12:00,50.4,47.8,29.68,East,90,1.2,1.3,91,0.00,,,0.84,WUHU216HW,2013-03-19 01:12:00,
2013-03-18 21:14:00,50.4,47.8,29.67,East,90,0.8,1.3,91,0.00,,,0.84,WUHU216HW,2013-03-19 01:14:00,
2013-03-18 21:15:00,50.4,47.8,29.68,East,90,0.4,1.3,91,0.00,,,0.84,WUHU216HW,2013-03-19 01:15:00,
2013-03-18 21:17:00,50.0,47.4,29.68,NNE,23,0.0,1.3,91,0.00,,,0.84,WUHU216HW,2013-03-19 01:17:00,
2013-03-18 21:19:00,50.0,47.4,29.68,NNE,23,0.0,1.3,91,0.00,,,0.84,WUHU216HW,2013-03-19 01:19:00,
2013-03-18 21:20:00,50.0,47.2,29.68,NNE,23,0.0,1.3,90,0.00,,,0.84,WUHU216HW,2013-03-19 01:20:00,
2013-03-18 21:21:00,49.9,47.0,29.68,NNE,23,0.0,1.1,90,0.00,,,0.84,WUHU216HW,2013-03-19 01:21:00,
2013-03-18 21:24:00,49.7,46.8,29.68,NNE,23,0.4,0.4,90,0.00,,,0.84,WUHU216HW,2013-03-19 01:24:00,
2013-03-18 21:25:00,49.7,46.8,29.68,East,90,0.9,0.9,90,0.00,,,0.84,WUHU216HW,2013-03-19 01:25:00,
2013-03-18 21:28:00,49.5,46.7,29.68,ESE,113,0.7,0.9,90,0.00,,,0.84,WUHU216HW,2013-03-19 01:28:00,
2013-03-18 21:29:00,49.3,46.5,29.69,ESE,113,0.6,0.9,90,0.00,,,0.84,WUHU216HW,2013-03-19 01:29:00,
2013-03-18 21:30:00,49.3,46.5,29.69,ESE,113,0.4,0.9,90,0.00,,,0.84,WUHU216HW,2013-03-19 01:30:00,
2013-03-18 21:33:00,49.3,46.5,29.69,ESE,113,0.0,0.9,90,0.00,,,0.84,WUHU216HW,2013-03-19 01:33:00,
2013-03-18 21:35:00,49.3,46.5,29.69,ESE,113,0.0,0.7,90,0.00,,,0.84,WUHU216HW,2013-03-19 01:35:00,
2013-03-18 21:39:00,49.3,46.5,29.69,ESE,113,0.2,0.4,90,0.00,,,0.84,WUHU216HW,2013-03-19 01:39:00,
2013-03-18 21:40:00,49.3,46.5,29.69,SE,135,1.2,1.3,90,0.00,,,0.84,WUHU216HW,2013-03-19 01:40:00,
2013-03-18 21:41:00,49.3,46.5,29.69,SE,135,1.2,1.3,90,0.00,,,0.84,WUHU216HW,2013-03-19 01:41:00,
2013-03-18 21:44:00,49.3,46.8,29.69,SE,135,0.7,1.3,91,0.00,,,0.84,WUHU216HW,2013-03-19 01:44:00,
2013-03-18 21:46:00,49.3,46.8,29.69,SE,135,0.0,1.3,91,0.00,,,0.84,WUHU216HW,2013-03-19 01:46:00,
2013-03-18 21:48:00,49.3,46.8,29.70,SE,135,0.0,1.3,91,0.00,,,0.84,WUHU216HW,2013-03-19 01:48:00,
2013-03-18 21:50:00,49.1,46.6,29.70,SE,135,0.0,0.7,91,0.00,,,0.84,WUHU216HW,2013-03-19 01:50:00,
2013-03-18 21:52:00,49.1,46.6,29.70,SE,135,0.0,0.7,91,0.00,,,0.84,WUHU216HW,2013-03-19 01:52:00,
2013-03-18 21:55:00,49.1,46.6,29.70,ESE,113,0.0,0.0,91,0.00,,,0.84,WUHU216HW,2013-03-19 01:55:00,
2013-03-18 21:56:00,49.1,46.6,29.70,ESE,113,1.1,1.1,91,0.00,,,0.84,WUHU216HW,2013-03-19 01:56:00,
2013-03-18 21:57:00,49.1,46.6,29.70,ESE,113,1.0,1.1,91,0.00,,,0.84,WUHU216HW,2013-03-19 01:57:00,
2013-03-18 21:59:00,49.3,46.8,29.70,ESE,113,0.6,1.1,91,0.00,,,0.84,WUHU216HW,2013-03-19 01:59:00,
2013-03-18 22:00:00,49.3,46.8,29.70,ESE,113,0.4,1.1,91,0.00,,,0.84,WUHU216HW,2013-03-19 02:00:00,
2013-03-18 22:01:00,49.3,46.8,29.70,ESE,113,0.0,1.1,91,0.00,,,0.84,WUHU216HW,2013-03-19 02:01:00,
2013-03-18 22:04:00,49.1,46.6,29.70,East,90,0.0,1.1,91,0.00,,,0.84,WUHU216HW,2013-03-19 02:04:00,
2013-03-18 22:05:00,49.1,46.6,29.71,NE,45,0.0,1.1,91,0.00,,,0.84,WUHU216HW,2013-03-19 02:05:00,
2013-03-18 22:07:00,49.1,46.6,29.71,NE,45,0.0,0.7,91,0.00,,,0.84,WUHU216HW,2013-03-19 02:07:00,
2013-03-18 22:08:00,49.1,46.6,29.71,NE,45,0.4,0.4,91,0.00,,,0.84,WUHU216HW,2013-03-19 02:08:00,
2013-03-18 22:09:00,49.1,46.6,29.71,ENE,68,0.4,0.4,91,0.00,,,0.84,WUHU216HW,2013-03-19 02:09:00,
2013-03-18 22:11:00,49.3,46.8,29.71,ESE,113,1.1,1.1,91,0.00,,,0.84,WUHU216HW,2013-03-19 02:11:00,
2013-03-18 22:13:00,49.3,46.8,29.71,ESE,102,1.2,1.3,91,0.00,,,0.84,WUHU216HW,2013-03-19 02:13:00,
2013-03-18 22:14:00,49.3,46.8,29.71,East,90,0.8,1.3,91,0.00,,,0.84,WUHU216HW,2013-03-19 02:14:00,
2013-03-18 22:17:00,49.3,46.8,29.72,NNE,23,0.0,1.3,91,0.00,,,0.84,WUHU216HW,2013-03-19 02:17:00,
2013-03-18 22:18:00,49.3,46.8,29.72,ENE,68,0.7,1.3,91,0.00,,,0.84,WUHU216HW,2013-03-19 02:18:00,
2013-03-18 22:19:00,49.3,46.8,29.72,ENE,68,0.7,1.3,91,0.00,,,0.84,WUHU216HW,2013-03-19 02:19:00,
2013-03-18 22:22:00,49.3,46.8,29.72,ESE,113,1.6,2.0,91,0.00,,,0.84,WUHU216HW,2013-03-19 02:22:00,
2013-03-18 22:24:00,49.3,46.8,29.72,ESE,113,1.2,2.0,91,0.00,,,0.84,WUHU216HW,2013-03-19 02:24:00,
2013-03-18 22:25:00,49.3,46.8,29.72,SE,135,1.1,2.0,91,0.00,,,0.84,WUHU216HW,2013-03-19 02:25:00,
2013-03-18 22:27:00,49.3,46.8,29.72,South,175,0.8,2.0,91,0.00,,,0.84,WUHU216HW,2013-03-19 02:27:00,
2013-03-18 22:31:00,49.5,47.0,29.72,NW,315,1.1,2.0,91,0.00,,,0.84,WUHU216HW,2013-03-19 02:31:00,
2013-03-18 22:32:00,49.5,47.0,29.72,NW,315,0.4,1.3,91,0.00,,,0.84,WUHU216HW,2013-03-19 02:32:00,
2013-03-18 22:33:00,49.5,47.0,29.72,NW,315,0.4,1.3,91,0.00,,,0.84,WUHU216HW,2013-03-19 02:33:00,
2013-03-18 22:36:00,49.7,47.2,29.72,NW,315,0.0,1.1,91,0.00,,,0.84,WUHU216HW,2013-03-19 02:36:00,
2013-03-18 22:38:00,49.7,47.2,29.72,NW,315,0.0,1.1,91,0.00,,,0.84,WUHU216HW,2013-03-19 02:38:00,
2013-03-18 22:39:00,49.7,47.2,29.73,NW,315,0.0,1.1,91,0.00,,,0.84,WUHU216HW,2013-03-19 02:39:00,
2013-03-18 22:42:00,49.7,47.2,29.73,NW,315,0.0,0.0,91,0.00,,,0.84,WUHU216HW,2013-03-19 02:42:00,
2013-03-18 22:43:00,49.7,47.2,29.73,NW,315,0.0,0.0,91,0.00,,,0.84,WUHU216HW,2013-03-19 02:43:00,
2013-03-18 22:44:00,49.7,47.2,29.73,NW,315,0.0,0.0,91,0.00,,,0.84,WUHU216HW,2013-03-19 02:44:00,
2013-03-18 22:47:00,49.7,47.2,29.73,NNW,338,0.0,0.0,91,0.00,,,0.84,WUHU216HW,2013-03-19 02:47:00,
2013-03-18 22:49:00,49.7,47.2,29.74,NNW,338,0.0,0.0,91,0.00,,,0.84,WUHU216HW,2013-03-19 02:49:00,
2013-03-18 22:52:00,49.7,47.2,29.74,ENE,68,0.7,0.7,91,0.00,,,0.84,WUHU216HW,2013-03-19 02:52:00,
2013-03-18 22:53:00,49.7,47.2,29.73,SE,135,1.1,1.1,91,0.00,,,0.84,WUHU216HW,2013-03-19 02:53:00,
2013-03-18 22:55:00,49.7,47.2,29.74,SSE,158,1.1,1.1,91,0.00,,,0.84,WUHU216HW,2013-03-19 02:55:00,
2013-03-18 22:57:00,49.7,47.2,29.74,SSE,158,0.9,1.1,91,0.00,,,0.84,WUHU216HW,2013-03-19 02:57:00,
2013-03-18 22:58:00,49.7,47.2,29.74,SE,135,0.0,1.1,91,0.00,,,0.84,WUHU216HW,2013-03-19 02:58:00,
2013-03-18 23:00:00,49.7,47.2,29.74,SE,135,0.0,1.1,91,0.00,,,0.84,WUHU216HW,2013-03-19 03:00:00,
2013-03-18 23:01:00,49.9,47.3,29.74,ESE,113,0.0,1.1,91,0.00,,,0.84,WUHU216HW,2013-03-19 03:01:00,
2013-03-18 23:03:00,49.9,47.3,29.75,ESE,113,0.4,1.1,91,0.00,,,0.84,WUHU216HW,2013-03-19 03:03:00,
2013-03-18 23:05:00,49.9,47.3,29.74,SE,125,1.2,1.3,91,0.00,,,0.84,WUHU216HW,2013-03-19 03:05:00,
2013-03-18 23:06:00,50.0,47.4,29.74,SSE,158,2.5,2.5,91,0.00,,,0.84,WUHU216HW,2013-03-19 03:06:00,
2013-03-18 23:08:00,50.0,47.4,29.75,South,177,2.3,2.5,91,0.00,,,0.84,WUHU216HW,2013-03-19 03:08:00,
2013-03-18 23:10:00,50.0,47.4,29.75,SE,135,0.9,2.5,91,0.00,,,0.84,WUHU216HW,2013-03-19 03:10:00,
2013-03-18 23:12:00,50.2,47.6,29.75,South,171,2.2,2.5,91,0.00,,,0.84,WUHU216HW,2013-03-19 03:12:00,
2013-03-18 23:13:00,50.4,47.8,29.75,SE,135,2.9,2.9,91,0.00,,,0.84,WUHU216HW,2013-03-19 03:13:00,
2013-03-18 23:16:00,50.6,48.0,29.75,ESE,113,3.6,3.6,91,0.00,,,0.84,WUHU216HW,2013-03-19 03:16:00,
2013-03-18 23:17:00,50.6,48.0,29.75,ESE,113,3.6,3.6,91,0.00,,,0.84,WUHU216HW,2013-03-19 03:17:00,
2013-03-18 23:19:00,50.8,48.2,29.75,SSE,158,3.4,3.6,91,0.00,,,0.84,WUHU216HW,2013-03-19 03:19:00,
2013-03-18 23:21:00,50.8,48.2,29.75,SSW,203,1.8,3.6,91,0.00,,,0.84,WUHU216HW,2013-03-19 03:21:00,
2013-03-18 23:23:00,50.8,48.2,29.76,SSW,203,1.0,3.6,91,0.00,,,0.84,WUHU216HW,2013-03-19 03:23:00,
2013-03-18 23:24:00,50.8,48.2,29.76,SSW,203,1.0,3.6,91,0.00,,,0.84,WUHU216HW,2013-03-19 03:24:00,
2013-03-18 23:27:00,50.9,48.3,29.76,SSE,158,1.1,3.4,91,0.00,,,0.84,WUHU216HW,2013-03-19 03:27:00,
2013-03-18 23:28:00,50.9,48.3,29.76,SSE,158,2.5,2.5,91,0.00,,,0.84,WUHU216HW,2013-03-19 03:28:00,
2013-03-18 23:29:00,50.9,48.3,29.76,SSE,158,2.5,2.5,91,0.00,,,0.84,WUHU216HW,2013-03-19 03:29:00,
2013-03-18 23:30:00,51.1,48.5,29.76,SSE,167,2.2,2.5,91,0.00,,,0.84,WUHU216HW,2013-03-19 03:30:00,
2013-03-18 23:32:00,51.1,48.5,29.75,SSE,158,1.1,2.5,91,0.00,,,0.84,WUHU216HW,2013-03-19 03:32:00,
2013-03-18 23:34:00,51.1,48.5,29.76,South,169,0.8,2.5,91,0.00,,,0.84,WUHU216HW,2013-03-19 03:34:00,
2013-03-18 23:35:00,51.1,48.5,29.76,NW,315,1.1,2.5,91,0.00,,,0.84,WUHU216HW,2013-03-19 03:35:00,
2013-03-18 23:36:00,51.1,48.5,29.76,SSE,158,1.8,2.5,91,0.00,,,0.84,WUHU216HW,2013-03-19 03:36:00,
2013-03-18 23:38:00,51.3,48.7,29.76,ESE,113,1.6,2.5,91,0.00,,,0.84,WUHU216HW,2013-03-19 03:38:00,
2013-03-18 23:39:00,51.3,48.7,29.76,SSE,158,1.6,1.8,91,0.00,,,0.84,WUHU216HW,2013-03-19 03:39:00,
2013-03-18 23:40:00,51.3,48.7,29.76,South,180,1.8,1.8,91,0.00,,,0.84,WUHU216HW,2013-03-19 03:40:00,
2013-03-18 23:41:00,51.3,48.7,29.76,South,180,2.5,2.5,91,0.00,,,0.84,WUHU216HW,2013-03-19 03:41:00,
2013-03-18 23:43:00,51.3,48.7,29.76,SSE,158,2.2,2.5,91,0.00,,,0.84,WUHU216HW,2013-03-19 03:43:00,
2013-03-18 23:44:00,51.3,48.7,29.76,SSE,158,2.2,2.5,91,0.00,,,0.84,WUHU216HW,2013-03-19 03:44:00,
2013-03-18 23:45:00,51.5,48.9,29.76,ESE,121,1.6,2.5,91,0.00,,,0.84,WUHU216HW,2013-03-19 03:45:00,
2013-03-18 23:47:00,51.5,48.9,29.76,SW,225,2.7,2.7,91,0.00,,,0.84,WUHU216HW,2013-03-19 03:47:00,
2013-03-18 23:49:00,51.5,48.9,29.77,SSE,158,2.5,2.7,91,0.00,,,0.84,WUHU216HW,2013-03-19 03:49:00,
2013-03-18 23:50:00,51.5,48.9,29.77,SSE,166,2.0,2.7,91,0.00,,,0.84,WUHU216HW,2013-03-19 03:50:00,
2013-03-18 23:52:00,51.5,48.9,29.76,South,180,1.9,2.7,91,0.00,,,0.84,WUHU216HW,2013-03-19 03:52:00,
2013-03-18 23:55:00,51.5,48.9,29.77,SSE,161,1.6,2.7,91,0.00,,,0.84,WUHU216HW,2013-03-19 03:55:00,
2013-03-18 23:57:00,51.5,48.9,29.77,SSE,158,2.3,2.5,91,0.00,,,0.84,WUHU216HW,2013-03-19 03:57:00,
2013-03-18 23:58:00,51.5,48.9,29.77,SSE,158,1.8,2.5,91,0.00,,,0.84,WUHU216HW,2013-03-19 03:58:00,